GEFSSGP_500_meanwind_174.txt.gz
Wind_Speed
7 7 7 6 5 5 5 5 6 6 6 7 7 7 7 7 7 7 7 7 7 8 7 6 5 5 5 5 5 3 2 2 2 3 2 2 2 2 2 2 2 2 2 2 2 2 3 3 3
8 8 8 6 6 6 6 6 6 6 7 7 8 8 8 7 7 7 7 7 7 8 8 7 6 5 5 5 4 3 2 2 2 2 2 2 2 3 3 3 3 3 3 2 3 3 3 3 3
10 9 9 8 7 7 7 7 6 6 7 7 8 8 7 7 7 7 7 7 7 8 8 7 6 6 6 5 4 3 2 2 2 1 2 2 3 3 3 3 3 3 3 4 4 4 4 4 4
10 10 10 9 8 8 8 8 7 7 7 8 8 8 7 7 8 7 7 7 8 8 7 6 6 5 5 4 4 3 2 2 1 1 2 2 3 3 3 4 4 4 4 4 4 4 4 4 5
11 11 10 10 9 9 9 9 8 7 8 8 8 8 8 8 8 8 7 8 8 8 8 6 6 5 4 4 3 2 2 1 1 1 2 2 3 3 3 4 4 5 5 5 5 5 5 5 5
11 11 11 10 10 10 9 9 9 8 7 8 8 8 9 8 8 8 8 8 8 8 7 7 6 4 4 3 3 2 2 1 1 2 2 3 3 3 3 4 4 5 6 6 6 6 6 6 6
11 11 11 11 10 10 9 9 9 8 7 8 8 9 10 9 9 8 7 8 8 8 7 6 5 4 3 3 3 2 1 0 1 2 3 3 3 3 4 4 5 5 6 6 6 6 7 7 7
11 11 11 11 11 10 9 9 9 8 7 8 9 9 10 9 9 9 7 8 8 7 7 6 5 4 3 3 2 1 1 1 2 3 3 3 4 4 5 5 6 6 6 7 7 7 8 8 8
9 10 10 11 11 10 9 8 8 8 7 7 8 10 10 9 9 9 8 7 7 7 6 6 5 4 3 3 2 1 1 2 2 3 3 4 4 5 5 6 6 7 7 8 8 8 8 9 9
9 9 10 9 9 9 8 8 8 8 8 8 8 9 9 9 8 8 7 7 8 7 6 5 4 4 3 2 2 1 1 2 2 3 4 4 5 5 6 6 7 8 8 8 8 8 9 9 10
9 9 9 9 8 8 7 7 8 8 8 7 8 8 8 8 8 7 7 7 7 7 6 5 5 4 3 2 1 1 1 2 3 4 4 5 5 6 6 7 8 8 9 9 9 9 9 9 9
9 8 8 8 8 7 8 8 7 7 8 8 7 8 8 8 8 8 7 6 6 7 5 4 4 4 2 2 1 0 1 2 3 4 4 4 5 6 7 8 8 9 9 9 10 10 10 9 9
7 7 7 8 8 8 7 7 7 8 8 8 7 7 7 8 8 8 7 6 5 6 5 5 4 3 2 1 0 1 2 2 3 4 4 5 6 7 8 8 9 9 10 10 10 10 10 10 10
8 7 7 7 8 7 7 7 7 8 7 7 7 7 8 7 8 7 7 6 5 5 5 5 4 3 2 1 1 1 2 3 4 4 5 6 7 8 8 9 10 10 10 10 10 10 10 10 10
8 8 7 7 7 7 7 7 7 8 8 8 7 7 7 7 7 7 7 6 5 5 5 4 3 3 2 1 1 2 2 3 4 5 6 7 7 8 9 10 11 11 11 11 11 11 11 11 11
8 7 7 7 7 6 7 8 8 9 9 8 8 8 8 8 7 7 7 6 6 5 5 4 3 2 2 1 2 2 3 4 5 6 6 7 8 9 9 10 11 11 11 11 12 12 12 12 11
7 7 8 8 7 7 7 7 8 9 9 8 8 8 8 8 8 7 7 7 6 6 5 4 3 2 2 2 2 3 3 4 5 6 7 8 9 9 10 11 11 11 12 12 12 12 12 12 12
7 7 7 8 7 8 8 6 6 7 8 7 7 8 8 8 7 7 7 7 7 6 4 4 3 3 3 3 3 3 4 5 6 7 7 8 9 10 11 11 12 12 12 12 12 12 12 12 12
8 7 6 7 7 7 7 7 6 6 7 8 8 8 8 8 8 7 7 7 7 6 5 5 4 4 4 4 4 4 5 6 6 7 8 9 10 10 11 11 12 12 12 12 12 12 12 12 11
8 7 7 7 7 7 7 6 6 6 7 8 8 8 8 8 8 8 8 7 7 6 5 5 5 5 5 5 5 5 5 6 6 7 8 9 10 10 11 11 12 12 12 12 12 12 12 12 11
9 8 7 6 6 7 6 6 6 6 7 8 8 9 9 9 9 8 8 7 6 6 5 5 5 5 5 5 5 5 5 6 6 7 8 9 9 10 10 11 12 12 12 12 12 12 12 12 11
9 8 8 6 6 6 6 6 7 7 7 8 9 9 8 8 9 8 8 8 7 6 6 6 6 6 5 5 5 5 5 5 6 7 8 8 8 9 10 11 11 12 12 12 11 12 12 12 11
9 9 8 7 6 6 6 6 7 8 8 8 9 9 9 9 9 8 8 7 7 7 6 6 6 5 5 5 5 4 4 5 5 6 7 7 8 9 10 10 11 12 12 12 11 12 12 12 11
10 9 8 7 7 6 6 7 8 9 9 9 10 10 9 9 9 8 7 7 7 7 6 6 5 5 5 5 5 4 4 5 5 5 6 7 7 8 9 10 11 11 12 12 12 12 12 12 11
11 10 9 7 7 6 7 9 9 10 9 9 9 10 10 10 9 9 8 7 7 7 6 6 6 5 5 5 5 5 5 5 5 6 6 7 7 8 9 10 10 11 12 12 12 13 12 12 11
11 11 10 8 7 7 8 10 10 9 9 9 10 10 10 10 9 9 8 7 8 7 7 6 6 6 6 6 6 5 6 6 5 6 7 7 7 8 9 10 10 11 12 12 13 13 13 12 12
11 11 10 8 7 6 7 9 9 9 9 9 10 10 10 10 9 9 8 7 8 8 7 6 6 6 6 5 5 5 5 5 6 6 6 6 7 8 8 9 10 11 12 13 13 13 13 12 12
11 11 10 8 7 7 6 7 8 8 9 9 10 10 11 11 10 9 9 8 9 9 8 7 7 7 6 5 5 5 6 6 6 6 7 7 7 8 9 10 11 12 12 13 13 13 13 13 13
11 10 9 8 7 6 7 8 10 8 9 10 10 10 10 11 11 10 10 9 9 9 9 9 8 7 7 6 6 6 6 7 7 7 7 7 7 8 10 11 11 12 13 13 13 13 13 13 13
10 11 10 10 9 9 9 9 10 9 9 9 10 10 10 11 11 11 11 10 10 9 9 9 8 8 8 8 7 7 7 7 7 8 7 8 8 10 11 12 12 12 13 14 13 14 14 14 13

GEFSSGP_500_meanwind_180.txt.gz
Wind_Speed
8 8 7 7 7 6 6 6 5 5 5 6 5 5 6 6 6 7 7 7 6 6 6 6 7 7 7 6 5 4 3 2 2 1 1 1 1 0 1 1 1 1 1 1 2 2 2 3 3
9 8 8 8 8 7 6 6 5 5 5 5 5 4 6 6 5 6 6 7 6 7 7 7 7 7 6 5 5 5 3 3 2 2 1 0 1 0 1 1 1 2 2 2 2 2 2 3 3
9 9 8 8 8 8 8 7 5 4 6 5 5 6 5 6 5 6 7 7 7 7 7 8 7 7 6 5 5 5 4 3 2 2 1 1 1 1 1 1 2 2 2 2 3 3 3 3 3
10 9 9 9 9 9 8 6 4 5 5 5 5 6 6 6 6 7 7 7 7 7 7 7 7 7 6 5 5 5 4 3 2 2 1 1 1 0 1 1 2 2 3 3 3 3 3 3 3
10 10 9 10 10 9 8 6 5 4 4 5 5 6 7 7 6 7 7 8 8 8 8 7 7 7 6 6 5 5 4 3 2 1 0 0 1 1 2 2 3 3 3 4 4 4 4 4 4
10 10 10 10 9 8 7 5 5 5 5 5 5 7 7 7 8 8 8 9 9 9 8 7 6 6 6 6 6 5 4 3 2 1 0 1 1 2 2 3 4 4 4 5 5 5 5 5 5
10 10 10 9 9 7 5 5 5 5 5 5 6 7 7 9 9 8 10 10 9 9 8 7 7 6 6 6 5 4 3 2 1 0 1 1 2 3 3 4 4 5 5 5 6 6 5 6 6
10 10 10 9 9 8 6 5 6 6 6 6 7 8 8 8 8 9 9 9 8 9 8 8 8 7 7 6 5 4 3 2 1 0 1 2 2 3 4 4 5 5 5 6 6 6 6 7 7
10 9 9 9 9 8 7 6 6 6 6 7 8 9 9 8 9 9 8 8 9 9 8 9 8 7 7 5 4 3 3 2 0 1 1 2 3 3 4 4 5 6 6 7 7 8 8 8 8
9 9 9 9 9 8 7 6 6 6 7 7 8 8 8 8 8 9 9 9 9 9 9 8 7 7 6 5 5 4 2 1 0 1 2 2 3 4 4 5 6 6 7 7 8 8 8 8 8
9 10 10 9 8 7 7 6 6 7 7 7 8 8 8 8 8 9 9 8 8 9 9 8 7 7 6 6 5 4 2 1 0 1 2 3 3 4 5 6 7 8 8 8 8 8 8 8 8
8 9 8 9 8 7 7 7 7 7 8 8 8 8 8 8 8 7 9 8 8 8 8 8 7 6 5 5 4 3 2 1 1 2 2 3 4 5 6 7 7 8 9 9 9 8 8 8 8
9 8 8 8 8 8 8 7 7 7 8 8 8 8 9 9 8 8 8 8 8 8 7 6 6 6 5 4 3 3 2 1 1 2 3 4 4 5 6 7 8 8 9 9 9 9 9 8 8
9 9 8 8 8 8 8 7 6 7 7 8 8 9 10 10 9 9 8 8 7 7 7 6 6 5 4 4 3 2 2 1 1 2 3 4 5 6 7 8 8 8 9 9 9 9 9 9 9
9 9 9 9 8 8 7 7 7 8 7 7 7 8 9 9 8 8 8 8 8 7 7 7 6 5 4 4 3 3 2 2 2 2 3 4 5 7 7 8 8 9 9 9 9 9 9 9 9
9 9 9 10 9 9 9 8 8 8 8 7 7 7 7 8 8 8 8 7 7 7 7 6 6 5 5 4 3 3 2 2 2 3 4 5 6 7 7 8 8 9 9 10 10 10 10 10 10
8 9 9 9 9 9 9 8 8 7 8 7 7 6 7 7 8 8 8 7 7 6 6 6 6 5 5 4 3 2 2 2 2 3 5 6 6 7 7 8 9 9 10 10 10 10 11 10 10
8 8 9 8 8 8 8 8 8 7 7 7 7 6 7 7 7 8 8 7 7 7 6 6 6 5 4 3 2 2 2 2 3 4 5 6 7 7 7 8 9 10 10 10 10 10 11 11 10
9 8 8 8 9 8 7 8 8 7 7 8 7 7 7 7 7 8 8 8 8 7 7 6 5 5 4 3 2 2 2 2 3 4 5 5 6 6 7 9 9 10 10 10 10 10 10 10 10
8 8 8 8 8 8 8 8 8 8 7 8 8 7 6 7 7 7 8 8 7 7 6 6 6 5 4 3 2 2 2 3 4 4 5 5 6 6 7 9 9 10 10 10 10 10 10 10 10
8 7 7 7 8 8 8 7 8 8 8 8 8 7 7 7 7 7 8 8 7 7 7 7 6 5 4 4 3 2 3 3 3 4 5 5 6 6 7 9 10 10 10 10 10 10 10 11 10
9 8 7 7 7 8 8 7 7 7 7 8 8 8 8 8 8 8 8 7 7 7 8 7 6 6 5 4 3 3 3 3 3 4 4 5 6 6 7 9 10 10 10 10 11 10 10 11 10
9 9 9 8 7 7 7 7 7 7 7 7 8 8 8 8 8 8 8 8 8 7 7 7 6 6 5 4 3 3 3 3 3 3 3 4 5 6 7 8 9 9 10 10 10 10 10 10 10
9 8 8 8 7 7 7 7 7 7 6 7 7 8 8 9 9 9 9 9 8 7 7 7 6 5 5 4 3 3 3 3 3 3 3 4 5 6 7 8 8 9 10 10 10 11 11 11 10
9 8 8 8 8 7 7 7 6 7 6 7 7 8 8 8 9 10 9 9 8 8 7 6 6 5 5 4 4 4 3 3 3 3 4 4 5 6 6 7 8 9 10 10 10 11 11 11 10
9 9 9 8 7 7 8 7 6 7 7 7 8 9 9 9 9 10 10 9 8 7 7 7 7 6 5 4 4 4 3 3 3 4 4 4 4 5 6 7 8 9 9 10 10 11 11 11 11
9 9 9 9 7 7 8 7 6 6 7 7 8 8 9 9 9 9 9 9 8 8 7 7 7 6 5 5 4 4 4 4 4 4 4 4 5 5 6 7 8 9 9 9 10 11 11 11 11
9 9 9 9 8 7 8 7 6 6 6 7 8 8 9 10 10 10 10 9 8 8 7 7 7 6 6 5 5 5 5 4 4 4 4 5 5 5 6 7 8 8 9 10 10 11 11 12 11
10 9 8 9 9 8 7 7 6 6 6 7 8 8 9 10 10 10 10 9 9 8 8 7 7 6 6 5 5 5 5 5 5 5 5 5 5 5 6 7 8 9 10 10 11 11 12 12 12
11 10 10 10 10 9 8 6 6 6 6 7 8 8 9 9 10 10 10 10 9 9 9 8 8 7 7 6 6 6 6 6 6 6 5 5 5 6 6 7 8 9 10 11 11 12 12 12 12

GEFSSGP_500_meanwind_186.txt.gz
Wind_Speed
8 8 8 7 7 6 6 5 4 4 4 5 6 7 7 7 7 6 7 8 8 7 7 6 5 5 4 4 4 3 3 3 3 3 4 4 4 4 5 5 5 4 5 5 4 4 4 3 3
8 8 8 8 7 6 6 5 4 4 4 5 6 6 7 7 7 6 7 7 8 7 7 7 6 5 4 4 4 3 3 3 3 3 3 4 4 4 4 4 4 4 5 5 5 5 5 4 3
8 8 8 8 7 6 6 5 5 4 4 5 6 7 7 7 7 7 7 8 8 7 7 7 7 6 5 4 3 3 3 3 3 3 3 3 4 4 4 4 4 4 5 5 5 5 5 5 4
8 8 8 8 7 7 7 6 5 5 4 5 6 7 8 8 8 8 8 8 8 7 7 7 7 6 5 4 3 2 2 2 2 3 3 3 4 4 4 4 4 4 5 5 5 5 5 5 5
8 8 8 8 7 7 7 6 6 5 5 5 6 7 8 8 8 8 9 8 8 8 7 7 7 6 5 5 4 3 2 2 2 3 3 3 3 3 3 4 4 4 4 5 5 5 5 5 5
8 8 8 8 8 8 6 7 7 7 7 6 6 7 7 9 9 8 9 8 8 8 8 8 7 5 5 5 4 3 2 3 3 3 3 3 3 3 3 4 4 4 5 5 5 6 6 6 6
8 8 8 8 8 7 7 7 7 7 7 7 6 7 8 9 9 9 9 9 9 9 9 8 7 6 5 4 3 3 2 3 2 2 3 3 3 3 4 4 4 5 5 5 6 6 6 6 6
8 8 8 8 8 7 7 7 7 7 7 7 7 7 9 10 10 10 10 9 10 10 9 8 7 6 6 5 3 3 3 2 2 1 2 2 3 4 4 4 5 5 5 6 6 7 7 7 7
8 8 7 8 8 7 6 6 7 8 8 8 8 8 9 10 10 9 9 10 10 9 8 7 6 6 5 5 4 3 2 2 1 1 2 2 3 4 4 5 6 6 6 7 7 7 7 7 7
8 8 7 7 7 7 7 7 7 8 9 8 9 9 10 10 10 10 10 10 9 9 8 7 6 6 5 4 3 3 2 1 0 1 1 3 4 4 5 6 6 6 7 7 7 8 8 8 8
7 7 7 7 7 7 7 6 7 8 9 9 9 10 10 10 10 10 10 10 9 9 8 7 7 7 6 5 4 3 2 1 1 1 2 3 4 5 5 6 6 7 7 8 8 8 8 8 8
7 7 7 7 7 8 7 7 8 8 9 9 9 10 10 10 10 9 9 9 9 8 8 8 7 7 6 5 4 3 2 1 1 1 2 3 4 5 5 6 6 7 8 9 9 9 9 9 8
8 7 8 8 8 9 8 8 9 8 9 10 9 9 10 10 10 10 10 10 10 9 8 8 7 6 6 5 4 3 2 1 1 2 3 3 4 5 5 6 7 8 8 9 10 10 9 9 9
7 7 8 9 8 9 9 9 9 9 9 9 10 10 10 11 10 10 11 11 10 9 8 7 8 7 6 5 4 3 2 2 2 2 3 4 5 5 6 7 8 8 9 9 10 10 9 9 9
7 8 8 9 8 8 9 9 9 9 10 10 10 10 10 11 11 11 11 10 10 9 8 8 7 7 6 5 4 3 2 1 2 2 3 4 5 6 7 7 8 9 9 9 10 10 9 9 9
7 8 8 9 8 8 8 9 10 10 11 11 10 10 10 10 11 10 10 9 9 8 8 8 7 7 6 5 4 3 2 2 2 3 4 5 5 6 7 7 8 9 9 10 10 10 9 9 9
7 7 8 9 9 8 8 8 9 11 11 11 10 10 10 10 10 10 10 9 9 8 7 7 7 7 6 5 4 3 2 2 2 3 4 5 5 6 7 8 8 9 10 10 10 10 10 9 9
6 6 8 8 9 9 9 8 9 10 10 10 10 10 10 11 11 10 9 9 9 8 8 7 7 7 6 5 4 3 3 2 2 3 4 5 5 6 7 8 8 9 10 10 10 10 10 9 9
6 6 7 8 9 9 8 9 9 10 10 10 10 9 10 11 11 10 9 9 8 8 8 8 8 7 6 5 4 3 3 3 3 3 4 5 5 6 6 7 8 9 9 9 9 9 10 9 9
7 7 7 8 9 9 9 9 9 9 10 10 10 10 10 10 10 10 9 9 8 8 8 8 7 7 6 5 4 3 2 2 2 3 4 5 5 5 6 7 8 9 9 9 10 10 10 10 9
7 7 7 7 9 9 9 9 10 10 10 10 10 10 10 10 11 10 9 9 9 9 9 8 8 7 7 5 4 3 2 2 2 3 4 4 4 5 5 6 8 8 9 9 10 10 10 10 9
7 7 7 8 9 9 9 9 10 10 11 10 9 10 10 10 10 10 10 10 9 9 9 8 8 7 6 5 4 4 3 2 2 3 3 4 4 4 5 6 7 8 9 9 10 10 10 10 9
7 7 8 8 9 9 8 9 9 10 10 9 9 10 10 10 10 10 10 10 10 9 9 9 8 7 6 6 5 4 3 3 3 3 3 3 4 4 5 6 7 8 9 9 9 9 10 10 9
7 7 7 8 9 9 9 9 9 9 9 9 10 10 10 10 10 11 10 10 10 9 9 9 8 8 7 6 5 4 4 3 3 3 3 3 4 4 5 6 7 8 8 9 9 9 9 10 10
8 7 8 8 8 9 9 10 10 9 10 9 10 10 10 11 11 11 11 11 10 9 9 9 8 8 7 6 5 5 4 4 4 3 3 4 4 5 6 6 7 7 8 8 9 9 9 10 10
9 8 8 8 8 8 9 9 9 9 9 10 10 11 11 11 12 12 11 11 11 10 10 10 9 8 7 6 5 5 5 4 3 3 3 4 4 5 5 6 6 7 7 8 9 9 10 10 10
9 9 8 8 8 8 9 8 9 9 9 9 9 10 10 11 11 12 12 11 11 11 10 10 10 9 8 7 6 5 5 4 4 4 4 4 4 5 5 6 6 7 7 7 8 9 10 10 11
9 9 9 8 8 8 8 8 9 8 9 9 9 10 11 11 11 12 12 12 12 12 11 10 10 10 9 8 7 6 6 5 5 5 4 4 5 5 6 6 6 6 7 8 8 9 10 11 11
9 10 9 9 8 8 8 8 9 8 9 9 10 11 11 11 12 12 12 12 12 12 11 11 10 10 9 8 8 7 7 6 6 5 5 5 5 6 6 6 6 7 8 8 9 9 10 11 12
9 10 10 9 8 8 8 8 8 8 9 9 10 11 12 12 12 12 12 12 12 12 12 12 11 11 10 9 8 8 7 7 7 6 6 6 6 6 6 7 7 7 8 9 9 10 11 11 12

GEFSSGP_500_meanwind_192.txt.gz
Wind_Speed
7 7 7 6 6 6 7 7 7 7 8 9 9 9 10 9 9 9 11 10 10 10 9 9 8 8 7 6 6 6 5 5 5 5 5 6 6 5 5 5 4 4 4 4 4 3 3 2 1
7 7 7 7 7 7 7 7 7 7 8 9 9 10 10 10 10 10 11 11 10 10 9 8 8 9 8 6 6 6 5 4 4 5 5 5 5 5 5 5 4 4 4 3 3 3 2 2 1
7 7 7 7 7 7 7 7 7 7 8 9 10 10 11 10 10 11 11 11 11 10 9 9 8 8 8 7 6 6 5 4 4 4 5 5 5 5 5 4 4 3 3 3 2 2 2 2 1
7 7 8 8 7 7 8 8 8 7 8 8 9 10 11 11 11 11 12 11 11 10 9 9 9 8 8 7 7 6 4 3 3 4 4 4 4 4 4 3 3 2 2 2 2 2 2 2 2
7 7 8 8 8 8 8 8 8 8 7 8 9 10 11 12 11 11 12 11 11 10 9 9 10 9 8 7 7 5 4 4 3 3 3 3 3 3 2 2 1 1 2 2 2 2 2 3 3
7 7 8 9 8 8 8 9 9 9 8 9 10 11 11 12 12 12 12 12 11 10 9 9 10 9 8 7 6 5 4 4 3 4 3 3 3 2 2 1 1 1 2 2 2 2 3 3 4
7 8 8 9 9 8 9 9 9 9 9 9 10 11 11 11 12 12 12 12 12 11 9 10 10 9 8 6 6 4 3 3 3 3 3 3 2 1 1 1 1 2 2 2 3 3 3 4 4
7 8 8 9 8 8 9 9 9 10 10 10 11 11 11 11 12 12 12 12 11 10 10 10 10 9 7 6 5 4 3 3 3 3 2 2 1 1 2 2 2 3 3 3 3 4 4 5 5
7 8 9 9 9 9 9 9 10 11 11 11 11 12 11 12 13 12 12 12 12 11 10 10 9 8 7 6 5 4 3 2 2 1 1 1 1 2 2 3 3 4 4 4 5 5 5 6 6
7 8 9 9 9 9 9 9 10 11 11 11 10 11 12 12 13 13 13 12 11 11 10 9 8 8 7 6 5 4 3 2 2 1 0 1 2 2 3 3 3 4 4 5 6 6 6 7 7
7 8 9 9 9 9 9 9 10 10 10 11 11 11 12 13 14 13 12 11 10 10 10 8 7 7 7 6 5 4 3 2 2 1 0 1 2 2 3 3 4 5 5 6 6 6 7 7 7
7 8 9 9 9 9 9 9 9 10 10 10 11 11 12 13 13 13 12 11 10 10 9 8 7 7 7 6 5 4 3 2 2 1 1 2 2 3 3 4 5 6 6 6 7 7 7 7 7
7 7 8 9 9 9 9 9 10 9 10 11 11 11 12 12 12 11 11 11 10 9 9 9 9 7 7 6 5 4 3 2 2 1 1 2 2 3 4 4 5 6 7 7 7 8 7 7 7
6 7 8 9 9 10 10 10 10 10 10 11 11 11 12 12 12 11 11 10 10 9 9 9 9 8 7 6 5 4 3 2 2 1 1 2 3 3 4 5 6 7 7 7 8 8 8 8 7
6 7 8 9 9 10 10 10 10 10 10 11 11 11 11 11 11 11 10 11 10 9 8 9 9 8 8 6 6 5 3 3 1 1 1 2 3 4 4 5 6 7 7 8 8 8 8 8 7
6 7 8 9 9 10 10 10 10 10 10 10 10 11 11 11 11 11 10 10 10 9 9 9 9 8 8 7 6 5 4 3 2 1 2 2 3 3 4 5 6 7 8 8 8 8 8 8 7
6 7 7 8 8 8 9 9 10 10 11 10 11 11 11 11 11 11 11 10 10 9 9 9 9 8 8 7 6 5 4 3 2 1 1 2 2 3 4 5 7 8 8 9 8 8 7 7 7
6 7 8 8 8 9 8 9 10 10 10 10 10 11 11 11 11 10 10 10 10 10 10 9 9 9 8 7 6 5 4 3 2 1 2 2 2 3 4 6 7 8 9 9 8 8 7 7 7
7 8 8 8 9 9 9 9 10 10 10 10 10 10 11 11 10 10 10 10 10 10 10 10 10 9 8 7 6 5 4 3 2 2 2 2 2 3 5 6 7 8 8 8 8 7 7 7 7
7 7 7 8 8 9 9 9 11 11 10 10 10 10 11 11 11 10 10 10 10 10 10 9 9 9 8 7 6 5 4 3 2 1 2 2 3 4 5 6 7 7 7 8 8 7 7 7 6
7 7 7 7 8 9 9 9 10 11 11 10 11 10 11 11 10 10 10 10 10 10 10 9 9 9 9 7 6 5 4 4 3 2 2 2 3 4 5 6 6 6 7 7 7 7 7 6 6
6 6 7 7 8 8 9 9 10 11 11 11 10 10 10 10 10 9 10 10 10 10 10 10 9 9 8 7 6 5 5 4 4 3 2 3 3 4 5 5 6 6 6 7 7 7 6 6 6
7 7 7 8 7 8 8 9 10 10 11 11 11 10 11 11 10 10 10 10 10 10 10 9 9 8 8 7 6 5 5 4 4 3 3 3 4 4 5 5 5 6 6 6 6 6 6 6 6
7 7 7 8 8 8 9 9 10 10 11 11 10 10 10 11 10 10 11 11 11 11 10 10 9 9 8 8 7 6 5 4 4 3 4 4 4 4 5 5 5 5 6 6 6 6 6 6 7
8 7 6 7 8 8 8 9 10 9 10 10 10 10 11 11 11 11 11 11 11 11 11 10 10 10 9 8 8 7 6 5 4 4 4 4 5 4 4 5 5 5 5 6 6 6 6 7 7
8 8 8 8 8 8 9 9 9 9 9 10 10 11 11 11 11 11 11 11 12 12 11 11 11 10 10 10 9 8 7 6 5 5 5 5 5 5 4 4 4 5 5 6 6 7 7 7 7
9 9 9 8 8 8 9 9 9 9 9 10 10 11 11 11 12 11 11 11 12 12 12 12 11 11 11 10 10 9 8 7 7 6 6 6 6 5 5 5 5 5 6 6 6 6 7 7 7
11 10 10 9 8 8 8 9 9 10 10 10 10 10 10 11 11 12 12 12 12 13 13 13 12 11 11 11 10 10 9 8 8 7 6 6 7 6 5 5 6 6 6 7 7 7 8 8 9
11 11 10 10 10 9 8 9 9 10 11 11 10 10 10 10 11 11 12 12 12 13 13 13 13 12 12 12 12 11 10 9 8 8 8 7 7 6 6 6 7 7 7 7 7 8 9 9 10
13 12 10 10 10 10 9 10 9 10 10 11 10 10 11 11 11 11 12 12 13 13 13 13 12 13 13 12 12 11 11 10 9 9 8 8 7 7 7 7 7 7 7 8 8 9 10 10 10

GEFSSGP_500_meanwind_198.txt.gz
Wind_Speed
7 7 7 7 6 7 7 8 8 8 8 8 9 10 9 9 8 8 8 8 8 8 8 7 7 6 6 5 5 5 5 4 4 4 4 4 4 4 4 4 4 4 3 3 3 3 3 2 2
7 7 8 7 7 8 8 8 8 8 8 9 9 10 10 9 8 8 8 9 9 9 8 8 8 7 6 6 5 5 4 3 3 3 3 3 3 3 3 3 3 3 3 3 3 3 2 2 2
7 8 8 8 8 8 8 8 8 8 9 9 9 10 10 10 10 9 9 9 9 9 9 9 8 7 6 5 5 4 3 3 2 2 3 3 2 2 2 2 2 2 3 3 3 3 2 2 2
7 8 8 8 8 8 8 8 8 8 9 9 10 10 11 11 10 10 10 10 10 9 9 9 8 7 7 6 4 3 3 2 2 2 2 2 2 2 1 1 2 2 3 3 3 3 3 3 3
7 8 8 8 8 8 9 9 9 9 9 9 10 10 11 11 12 10 10 10 10 10 9 9 8 7 7 5 4 3 2 2 2 2 2 2 1 1 1 1 2 2 3 3 4 4 4 4 4
6 7 7 8 8 9 9 9 9 9 9 9 10 10 11 11 11 11 10 10 11 11 10 9 8 7 7 6 4 3 3 2 2 2 2 1 1 1 1 1 1 2 3 3 4 4 4 5 5
7 7 8 8 9 9 9 9 9 9 9 9 9 10 11 11 11 11 11 11 11 11 10 9 9 7 7 6 4 3 3 3 3 2 1 1 0 1 1 2 2 3 4 4 4 5 6 6 6
7 7 7 8 9 9 9 9 9 9 9 9 9 9 10 11 11 11 10 11 10 10 10 10 9 8 7 5 4 3 3 3 2 1 1 1 1 1 2 3 3 4 4 5 6 6 7 7 7
7 7 8 8 8 8 8 9 9 9 9 9 9 9 10 11 11 11 11 10 10 10 9 10 9 8 7 5 4 4 3 2 1 0 0 1 1 2 3 3 4 5 5 6 7 7 8 8 8
7 8 8 8 7 8 8 9 9 8 8 8 8 9 10 11 11 11 11 10 10 10 9 9 9 8 7 6 5 4 3 2 1 1 0 1 2 2 3 4 5 5 6 7 7 8 8 8 9
7 7 8 7 7 8 8 8 9 8 8 8 7 9 10 10 11 12 12 11 10 9 9 8 8 7 7 6 5 5 4 2 1 1 1 1 2 3 4 5 5 6 7 7 8 8 8 9 9
7 7 7 7 7 7 8 8 8 9 8 7 7 8 9 9 10 11 12 11 9 9 8 7 7 7 6 5 5 5 4 2 1 1 1 2 2 2 3 5 6 6 7 8 8 8 9 9 9
6 7 7 7 6 7 7 7 8 8 8 7 7 8 9 9 9 10 10 10 9 8 8 7 6 6 6 5 5 4 3 3 2 1 1 2 3 3 4 5 5 6 7 8 8 9 10 10 10
6 6 6 6 6 7 8 7 8 8 8 7 8 8 8 9 9 9 9 8 7 7 7 7 6 6 5 5 5 5 3 2 2 1 1 2 3 4 5 5 6 7 8 8 9 10 10 10 10
5 6 5 5 6 8 8 7 7 8 7 7 7 7 8 9 9 9 8 8 7 7 7 7 6 5 5 4 3 3 3 2 1 1 2 2 3 4 5 5 7 8 9 9 9 10 10 10 10
5 5 5 5 6 7 8 7 7 7 7 8 7 7 8 8 9 9 8 8 7 7 7 6 6 6 5 4 4 3 3 3 2 2 2 2 3 4 5 6 7 8 9 9 9 10 10 10 10
4 4 4 5 6 6 7 7 7 7 7 7 7 7 8 7 8 8 8 8 8 7 7 6 6 6 5 5 4 4 4 3 2 2 2 3 3 4 5 6 7 8 9 9 10 10 10 9 9
5 4 4 4 5 6 7 7 7 7 8 7 7 7 7 7 7 8 8 8 8 7 7 7 6 6 6 6 4 4 4 3 2 2 3 3 3 4 6 7 7 8 8 9 10 10 10 9 9
5 5 5 5 5 6 6 6 7 7 8 7 7 8 7 7 7 7 8 8 8 7 7 6 6 6 6 6 6 5 4 3 3 2 3 3 4 4 6 7 7 8 8 9 10 10 10 9 9
5 5 5 6 6 6 6 6 6 7 7 7 7 7 7 7 7 7 7 8 7 7 7 6 7 6 6 6 6 5 4 3 3 3 3 3 4 4 6 7 8 8 8 9 9 10 10 10 9
6 6 5 6 6 6 5 6 6 6 7 8 8 8 7 7 7 7 7 7 7 7 7 7 7 7 7 6 5 5 4 3 3 3 3 3 4 5 6 7 8 8 9 9 9 10 10 10 9
7 6 6 6 6 5 5 5 6 7 7 7 8 8 8 8 8 7 7 7 7 7 7 7 7 7 7 6 6 5 5 4 3 3 3 3 4 5 6 7 8 8 8 8 9 9 10 9 9
7 7 6 5 5 6 6 7 7 8 8 8 8 9 9 9 8 8 8 7 8 7 6 7 7 7 7 7 7 6 5 4 4 3 3 3 4 5 6 7 7 8 8 8 8 9 9 9 8
7 7 6 6 7 7 7 8 8 8 9 9 8 9 9 9 10 9 9 8 8 8 7 7 7 7 7 7 7 6 6 5 4 4 3 3 4 5 6 6 7 7 7 7 8 8 9 9 9
8 7 7 6 7 7 7 9 10 8 10 11 10 10 10 10 11 10 10 9 8 8 8 8 8 7 7 6 6 6 6 5 5 4 4 4 5 5 6 6 6 6 7 7 8 8 9 9 9
10 9 7 6 6 7 9 10 10 10 11 11 10 10 10 11 10 10 10 10 10 9 9 10 9 9 8 7 7 7 7 6 6 6 5 5 6 6 7 6 6 7 7 8 8 9 9 9 9
11 11 10 9 8 8 9 10 11 10 11 12 11 10 10 10 10 10 10 10 10 10 10 10 10 9 9 9 8 8 7 7 7 6 6 6 6 6 7 7 7 7 8 8 9 9 9 9 10
12 12 12 11 10 9 8 10 11 10 10 11 11 10 10 10 10 10 10 10 10 10 10 10 10 10 10 9 9 9 9 8 8 7 7 7 7 7 8 8 8 8 8 9 9 9 9 10 10
12 13 12 11 11 10 9 10 12 12 11 11 11 10 10 10 10 11 11 11 10 10 11 11 11 10 9 9 9 9 9 9 9 9 8 8 8 9 9 9 9 9 9 9 9 10 10 10 10
13 13 13 13 12 12 12 12 12 12 12 12 11 10 11 11 11 10 11 11 10 10 10 11 11 11 10 10 10 10 8 8 9 9 9 9 9 9 9 10 10 10 10 10 10 10 11 11 11

GEFSSGP_500_meanwind_204.txt.gz
Wind_Speed
6 6 7 7 7 8 9 8 7 7 7 8 8 7 7 6 6 6 7 7 7 6 7 6 5 5 4 3 3 3 2 2 2 2 2 2 2 1 1 2 2 2 2 2 2 2 3 3 2
6 6 7 7 7 8 8 8 8 7 6 7 7 8 8 7 7 7 6 7 7 7 7 7 5 5 4 4 3 2 2 2 2 1 1 1 1 2 2 1 2 2 2 2 2 2 3 3 3
6 6 7 7 7 8 8 7 7 7 7 7 7 7 8 8 8 7 7 7 7 7 7 7 6 5 5 4 3 3 2 2 2 1 0 1 1 2 1 1 1 2 1 2 2 3 3 3 2
6 6 7 7 7 7 8 7 7 7 7 8 7 7 8 8 8 8 7 7 8 8 7 7 6 5 5 4 4 4 2 2 1 0 0 1 1 1 1 1 1 2 2 2 2 3 3 3 3
6 7 7 7 8 7 7 7 6 7 7 7 7 7 8 8 9 9 8 8 8 8 7 7 6 5 5 5 4 3 3 2 1 1 0 0 1 1 1 1 1 2 2 2 3 3 4 4 5
6 7 7 7 7 6 6 7 8 7 7 8 8 8 8 9 10 10 9 8 8 8 8 7 7 6 6 5 4 3 3 2 2 2 1 1 0 0 1 2 2 2 3 3 4 4 5 5 6
7 7 7 6 6 6 6 6 7 7 6 7 8 7 8 9 10 11 11 10 9 8 8 8 7 6 6 5 4 4 3 3 2 2 1 1 1 1 1 2 3 3 4 5 5 6 6 6 6
7 7 7 6 5 6 6 6 6 7 6 7 8 8 8 9 10 11 11 10 10 9 8 7 7 6 6 6 5 4 4 3 2 2 2 1 1 2 2 3 3 4 5 5 6 6 6 7 7
7 7 7 6 5 6 6 6 6 6 7 7 7 8 8 9 10 11 11 11 11 9 9 8 7 7 6 6 5 5 4 3 3 2 2 1 2 2 2 3 4 5 5 6 6 6 6 7 7
6 6 6 5 5 5 6 6 6 6 7 6 7 7 8 9 9 10 11 11 10 10 9 9 8 7 7 6 6 5 4 4 3 2 2 2 2 3 3 4 5 5 5 6 6 7 7 7 7
6 5 5 5 5 5 5 6 6 7 7 7 7 7 7 8 9 9 10 10 10 10 9 9 9 7 7 6 6 5 5 4 3 2 2 2 3 3 3 4 5 5 5 6 7 7 8 8 8
6 6 5 5 5 5 5 6 6 7 7 7 7 6 7 8 9 9 10 10 10 10 9 9 9 8 8 7 6 6 6 5 3 2 2 2 2 3 3 4 5 5 6 6 7 8 8 8 8
6 6 6 5 5 5 5 6 6 7 6 6 6 6 7 8 8 9 10 10 10 9 9 9 9 9 8 8 7 6 6 5 4 3 3 2 2 3 3 4 4 5 6 7 8 9 8 8 8
5 5 5 5 5 4 4 5 6 6 6 6 6 6 8 8 8 9 9 9 10 9 9 9 9 9 9 8 8 7 6 5 4 4 3 2 2 3 3 4 4 5 6 7 8 8 8 8 8
5 5 5 5 5 5 4 5 5 6 7 6 6 6 7 7 8 9 8 9 9 9 9 9 9 9 8 9 8 7 6 4 4 4 3 2 2 2 3 4 5 6 7 7 8 8 8 8 8
6 5 5 5 4 4 5 5 5 5 6 6 6 6 6 6 7 8 8 8 9 9 9 9 9 9 8 8 8 8 6 5 4 4 3 3 2 2 3 4 5 6 6 7 7 8 8 8 8
6 6 5 5 4 4 4 5 5 5 6 6 6 6 6 6 7 7 8 8 9 9 9 10 9 9 8 8 7 7 6 5 4 4 3 3 2 2 3 4 5 6 6 7 7 8 8 8 8
6 6 6 6 5 4 4 5 5 6 6 6 6 6 6 7 7 7 8 8 9 9 10 9 9 9 9 8 7 6 5 5 4 4 4 3 3 3 3 4 5 5 6 7 7 8 8 8 8
7 6 6 5 5 5 4 5 5 6 6 6 6 6 7 7 7 7 8 9 9 9 9 8 9 10 9 9 8 7 6 5 5 4 3 3 3 3 3 4 4 5 5 6 7 7 8 8 8
7 7 6 6 6 5 5 5 6 6 7 6 6 7 7 8 7 7 8 9 9 10 9 8 9 10 10 9 8 7 6 6 5 5 4 3 3 3 3 4 4 5 5 5 6 7 7 7 7
7 7 6 6 5 6 5 5 6 7 7 6 7 7 8 8 8 8 8 8 10 10 10 10 9 9 10 9 9 8 7 6 5 5 4 4 3 3 4 4 4 5 5 5 6 7 7 7 7
8 7 7 6 6 6 6 5 5 6 7 7 7 7 8 8 8 9 8 8 9 10 10 10 10 10 10 9 9 9 8 6 5 5 4 4 4 4 4 4 4 5 5 5 6 6 7 7 8
8 8 8 7 6 6 6 6 5 6 6 6 6 7 8 8 9 10 9 9 9 10 10 11 11 10 10 10 9 9 8 7 6 5 4 4 4 4 4 4 4 5 5 5 5 6 7 7 7
8 9 9 8 7 6 5 5 5 5 5 6 6 6 7 8 8 9 10 9 10 10 10 10 11 11 10 10 10 9 9 8 7 5 5 4 4 4 4 4 5 5 5 5 6 6 7 7 7
9 10 9 9 8 7 6 5 4 5 6 6 7 7 7 7 7 9 9 9 10 10 10 10 10 11 11 11 10 9 9 9 8 6 6 5 5 5 5 5 5 6 6 6 6 7 7 8 8
10 10 10 10 8 7 7 5 5 5 6 6 7 7 7 7 8 9 9 10 10 10 10 10 10 10 10 11 10 10 10 10 9 8 7 6 6 6 6 6 6 6 6 7 7 8 8 8 8
13 12 12 11 10 9 8 6 6 6 6 6 6 6 6 7 8 9 10 10 10 10 10 10 10 10 10 10 10 10 11 11 10 9 8 7 7 6 6 6 6 7 7 7 7 8 8 8 9
14 13 13 13 12 11 10 9 7 6 6 6 6 6 7 8 9 9 10 11 11 11 11 11 11 11 11 10 10 10 10 10 10 9 8 8 8 8 8 8 7 7 7 7 8 8 9 9 9
14 14 14 14 13 13 12 10 8 7 6 6 7 7 8 8 9 10 10 11 12 12 12 12 12 12 11 11 11 10 10 10 10 9 9 9 8 8 8 9 8 8 8 8 8 9 9 9 10
15 15 15 15 14 14 13 11 9 8 7 7 8 8 9 9 10 10 10 11 11 12 12 12 12 12 12 11 11 11 10 10 10 10 10 10 10 9 9 9 9 8 8 8 9 9 10 10 11

GEFSSGP_500_meanwind_210.txt.gz
Wind_Speed
6 6 6 6 5 5 5 5 6 7 7 7 6 6 6 6 5 5 5 5 5 4 4 3 3 3 4 4 5 5 4 4 4 4 4 4 4 5 5 5 4 4 4 4 4 4 5 5 4
6 6 6 6 6 5 5 5 6 7 7 7 6 6 7 6 5 5 5 5 6 5 4 4 3 3 3 3 3 3 3 3 4 4 3 4 4 4 4 4 3 3 3 3 4 4 4 4 4
5 5 5 6 6 5 5 5 6 6 7 7 6 6 6 6 5 5 5 5 5 5 4 5 4 3 2 2 2 3 3 3 3 3 3 3 3 4 3 3 3 2 3 3 4 4 4 4 4
5 5 6 6 6 6 6 6 6 6 6 7 7 6 6 6 6 6 5 6 5 5 5 4 4 3 2 1 1 1 1 2 3 3 3 3 3 3 3 3 3 2 3 4 4 5 5 5 5
5 5 5 5 5 6 6 6 6 7 6 7 7 6 6 6 6 7 6 6 6 6 6 5 4 3 2 2 1 0 1 1 1 2 2 2 2 2 2 2 3 3 3 4 5 5 5 5 5
5 5 5 4 4 5 6 6 7 7 6 7 7 7 7 7 7 7 7 7 7 7 6 6 5 4 3 2 1 1 2 1 1 1 1 1 1 2 2 3 3 4 4 5 5 5 6 6 6
6 6 5 5 5 5 5 7 7 8 7 7 7 7 7 7 7 8 8 8 8 7 6 7 6 5 4 3 2 2 2 2 1 0 1 1 1 2 2 3 4 4 5 5 6 6 7 7 7
5 6 5 5 6 6 6 7 7 7 7 7 6 6 7 8 9 9 9 9 9 8 7 7 5 5 5 4 3 3 2 2 2 1 1 1 1 1 2 3 4 5 5 6 6 7 7 7 8
6 5 6 6 6 6 7 7 7 7 7 7 7 7 7 8 9 10 10 10 9 9 8 7 6 6 5 5 4 4 3 2 2 2 2 2 2 2 2 3 4 5 6 6 6 7 8 8 8
6 6 6 6 6 6 6 7 7 7 7 7 7 8 8 8 8 10 11 11 10 9 9 7 7 6 6 5 5 5 4 3 2 2 2 2 2 2 3 4 4 5 5 6 7 7 8 8 8
6 6 6 6 7 7 7 7 7 7 7 8 8 8 8 8 9 10 11 10 10 10 9 8 8 7 7 6 6 5 4 4 4 3 3 2 2 2 3 4 4 5 5 6 7 7 7 8 8
5 6 6 6 6 7 7 7 7 8 8 7 8 8 8 9 9 10 10 10 10 10 10 10 9 8 7 7 6 6 5 4 4 4 4 3 3 2 3 4 5 5 6 6 7 7 8 8 8
5 6 6 6 6 6 7 7 7 8 8 8 8 8 8 8 8 10 10 10 10 10 10 10 9 8 8 8 7 6 5 5 4 5 4 4 3 3 4 4 5 6 6 7 7 7 8 8 8
6 6 6 6 6 6 6 7 7 7 7 8 8 7 7 8 9 9 10 10 10 10 10 9 8 8 9 9 8 7 6 6 5 5 5 4 4 4 4 5 5 5 6 7 7 7 7 7 8
7 7 6 6 6 5 6 6 7 8 8 8 8 7 7 8 9 9 10 10 10 10 10 10 9 9 9 9 9 8 7 6 5 5 5 4 4 4 4 5 5 5 6 6 6 7 7 7 7
8 7 7 6 6 6 6 6 7 8 8 8 8 8 8 8 9 9 9 10 11 10 10 10 10 10 10 9 9 8 7 6 6 5 4 4 4 4 5 5 5 6 6 6 7 7 7 7 7
8 8 7 7 7 7 7 6 6 8 8 8 9 9 9 8 9 9 9 10 10 10 10 10 10 10 9 9 8 8 8 7 7 6 5 4 4 4 5 5 5 6 6 6 7 7 7 7 8
9 9 8 8 7 7 7 7 8 8 9 9 10 10 9 9 9 9 9 10 10 10 10 10 10 10 9 9 9 9 8 7 7 7 6 5 5 4 5 5 5 5 6 7 7 8 8 8 8
9 9 8 8 8 7 7 8 9 9 9 9 10 11 10 10 10 10 9 10 10 10 10 10 9 10 10 10 9 9 8 8 7 7 6 5 5 5 5 4 5 5 6 7 7 8 8 8 8
9 9 8 9 8 8 8 8 9 10 10 9 10 10 11 11 10 10 10 10 9 10 10 10 10 9 9 9 8 9 8 8 8 7 7 6 6 6 6 5 5 6 6 7 7 8 8 8 8
10 10 9 9 9 8 9 9 9 10 10 10 10 10 11 11 11 11 11 10 10 10 11 11 10 10 9 9 9 9 9 8 8 7 7 6 5 6 6 6 6 7 7 7 7 8 8 8 8
11 10 10 9 9 9 8 9 9 10 9 10 10 10 10 11 11 10 10 10 10 11 11 11 10 10 10 10 10 9 9 9 9 8 7 6 6 6 6 6 6 7 7 7 7 7 7 7 8
11 11 10 10 10 10 9 9 8 9 9 9 9 10 10 10 10 10 11 11 11 11 11 11 11 10 11 10 10 10 10 10 9 9 8 7 6 6 6 6 6 7 7 7 7 7 7 8 8
11 11 11 11 11 10 9 9 8 9 9 10 9 9 10 10 10 10 11 11 11 11 11 11 11 11 10 10 10 11 11 10 10 9 8 8 7 7 6 6 6 6 7 7 7 7 7 8 8
12 12 11 11 11 10 9 9 7 8 9 10 10 10 10 11 11 11 11 12 12 12 12 12 12 11 11 11 12 11 11 11 11 10 9 9 8 8 7 7 7 7 7 7 8 8 8 8 8
13 13 12 12 11 10 9 9 7 8 8 9 10 10 10 10 11 12 12 12 12 13 13 13 13 13 12 12 12 12 12 12 12 12 10 9 9 9 8 8 8 8 8 8 8 8 9 9 9
14 14 13 13 12 11 10 8 8 8 8 8 9 9 8 9 11 12 12 12 12 13 13 13 13 13 12 13 13 13 13 12 13 12 11 10 9 8 9 9 9 9 9 9 9 9 9 9 9
15 15 15 14 13 12 11 9 8 8 9 9 9 9 9 10 10 11 11 12 12 12 12 12 12 13 12 13 13 13 13 13 13 13 12 11 10 10 9 9 9 10 10 10 10 10 10 10 10
16 16 16 15 15 14 12 10 9 9 10 10 10 10 10 10 10 10 11 11 11 12 12 12 12 12 12 12 13 13 13 13 13 12 12 12 11 11 11 10 10 11 11 11 11 11 11 11 11
17 17 17 17 16 15 13 11 11 11 10 11 11 10 11 11 11 11 11 11 11 12 12 12 12 12 12 13 13 13 13 13 13 13 13 12 12 11 11 11 11 11 11 11 11 11 12 12 12

GEFSSGP_500_meanwind_216.txt.gz
Wind_Speed
6 6 5 5 6 6 6 7 7 7 7 7 6 7 7 7 7 7 7 6 6 5 6 6 5 5 5 5 6 6 5 5 5 5 5 5 5 5 5 4 4 4 4 3 3 3 3 3 3
6 6 5 5 6 6 6 6 7 7 7 7 6 7 7 7 7 7 6 7 7 6 6 6 5 5 5 5 5 5 5 4 4 5 5 4 4 3 3 3 3 3 3 3 3 3 3 3 3
6 6 6 6 6 6 6 6 7 7 7 7 6 6 7 7 7 7 7 7 7 7 6 5 6 5 5 5 4 4 4 4 4 4 4 4 3 3 3 3 2 2 2 2 2 3 3 3 3
6 6 6 6 6 6 7 6 7 7 8 7 7 7 7 7 7 7 7 7 7 7 6 5 5 5 5 4 4 4 4 4 4 3 3 3 2 2 2 3 2 2 1 2 2 2 3 3 3
6 6 6 6 6 6 7 7 7 7 7 7 7 8 7 7 7 7 7 7 7 7 7 6 6 6 5 4 3 3 4 3 3 3 3 2 2 1 1 1 2 1 2 2 3 3 3 3 3
6 6 6 6 6 6 7 8 8 8 8 8 8 8 7 8 8 9 9 8 7 7 7 7 7 6 5 4 3 2 2 3 2 2 2 2 1 1 0 0 1 1 2 2 3 3 4 4 4
6 6 6 6 6 7 7 8 8 7 7 8 8 8 8 9 9 9 10 9 8 8 8 7 7 7 6 5 4 3 3 3 3 2 2 2 1 1 1 1 2 2 2 3 3 4 4 5 5
6 6 5 6 6 7 7 8 8 8 8 8 8 8 9 10 10 10 10 9 9 9 9 9 8 8 7 6 5 5 4 4 4 3 2 2 2 1 1 1 2 3 3 3 4 4 5 5 5
7 6 5 6 6 7 7 7 7 8 8 8 8 8 9 10 10 10 10 10 10 9 9 9 9 9 8 7 6 6 5 5 4 4 3 3 3 2 1 1 2 3 3 4 4 5 5 5 5
7 7 7 7 7 7 7 7 8 8 8 8 8 8 8 10 10 10 10 11 10 10 10 10 9 9 9 8 8 6 5 5 5 4 4 3 3 2 2 2 2 3 3 3 4 4 5 5 5
7 7 7 7 7 8 8 8 8 7 7 8 8 8 8 9 10 11 11 11 11 10 10 10 9 9 9 9 8 6 5 5 5 5 4 4 3 3 3 3 3 4 4 4 4 4 5 6 6
8 7 7 7 7 8 8 8 8 8 8 8 8 8 9 9 10 11 11 11 11 10 10 11 9 9 9 9 9 7 6 5 5 5 5 4 4 3 3 3 3 4 4 4 4 5 5 6 6
8 8 7 7 7 7 8 8 8 8 8 8 8 8 9 9 9 10 10 10 11 11 11 10 10 8 9 8 8 7 6 6 6 5 5 4 4 4 3 3 4 4 4 4 4 5 6 6 6
8 8 8 7 7 7 8 8 8 8 8 8 8 8 8 9 9 9 9 10 10 10 11 11 11 9 9 9 9 8 7 7 6 5 5 5 4 4 4 4 4 4 4 5 5 6 6 6 7
8 8 8 8 8 7 7 8 8 8 8 8 9 9 9 9 9 9 9 10 10 10 10 11 11 11 10 9 10 9 9 8 7 6 6 5 5 4 4 4 4 4 4 5 5 6 6 6 7
8 8 8 8 8 7 7 7 8 8 8 9 9 9 9 9 9 10 10 10 10 10 10 11 11 11 11 10 10 10 9 8 7 7 6 6 5 5 4 4 4 5 5 5 5 6 6 7 7
9 9 8 8 8 8 8 7 8 8 8 8 9 9 9 9 9 10 10 10 10 10 10 11 11 10 10 10 10 10 10 9 8 7 6 6 6 5 5 5 5 5 5 5 5 6 6 7 7
10 10 9 9 9 8 8 9 8 9 9 9 9 9 10 10 9 10 10 9 9 10 11 11 11 11 11 11 10 10 10 9 8 7 7 7 6 6 6 5 5 5 5 5 6 6 7 7 7
10 10 10 10 9 9 9 9 9 9 9 10 9 9 10 10 10 10 10 9 9 10 10 11 10 10 11 10 10 10 10 9 8 7 7 7 6 6 6 5 5 5 5 6 6 7 7 7 7
10 10 10 10 9 10 9 10 10 10 10 10 10 10 10 11 11 11 10 10 10 10 10 10 10 11 11 10 10 10 10 9 8 7 8 7 6 6 6 5 5 5 5 6 6 6 7 7 7
10 10 10 10 10 9 9 10 10 10 10 10 10 11 11 11 11 11 11 10 10 11 11 10 10 10 10 10 11 10 10 9 8 7 7 7 6 6 6 6 6 6 6 6 6 6 7 7 7
10 10 10 10 10 10 11 10 11 11 10 10 10 11 11 11 11 11 11 11 11 11 11 11 11 11 11 11 11 10 10 9 8 7 7 7 6 6 7 7 7 7 7 7 7 6 6 7 7
11 11 10 10 10 10 10 10 10 11 11 10 11 11 11 11 11 11 11 11 11 11 11 11 11 11 11 11 10 10 10 9 9 8 8 7 7 7 7 7 7 7 7 7 6 6 6 7 7
12 11 11 10 10 11 9 10 9 11 10 11 11 11 11 11 11 11 11 11 11 11 11 11 12 12 11 11 11 10 10 10 10 10 9 8 8 8 8 7 7 7 7 6 6 6 6 7 7
13 12 12 12 12 11 10 10 9 10 11 11 11 11 11 11 11 11 11 12 11 11 11 12 12 12 12 11 11 11 11 11 11 11 10 9 9 8 8 7 7 7 7 7 7 7 7 8 8
14 14 14 14 14 12 11 10 9 10 10 11 11 10 10 11 11 11 12 12 12 12 12 12 12 12 12 12 12 12 12 12 12 11 11 10 10 9 8 8 8 8 7 8 8 8 9 9 9
15 15 15 15 14 13 12 10 9 10 10 10 11 11 11 11 11 11 12 12 12 12 12 11 11 12 13 13 13 14 13 12 12 11 11 10 10 9 9 9 9 9 8 9 9 9 9 9 9
16 16 16 16 15 14 12 11 10 10 10 10 10 10 11 10 11 11 11 11 11 12 12 11 12 12 13 13 13 13 13 12 11 11 11 11 11 10 10 9 9 10 10 10 10 10 10 10 10
17 17 17 17 16 15 13 12 11 11 10 10 10 10 10 10 10 10 10 10 11 11 12 12 12 12 12 12 12 11 11 11 11 11 11 11 11 11 10 10 10 10 10 10 10 10 10 11 12
19 19 19 18 18 16 15 13 12 12 11 11 11 11 11 11 11 11 11 11 11 11 11 12 11 11 12 11 11 11 11 11 11 11 11 11 11 11 11 11 11 11 11 11 11 12 12 12 12

GEFSSGP_500_meanwind_222.txt.gz
Wind_Speed
4 4 5 5 4 4 4 4 4 4 4 5 5 6 6 6 6 5 5 4 2 1 0 1 2 3 2 2 3 3 3 3 3 2 3 3 2 2 2 2 3 3 3 3 4 4 4 4 5
5 4 5 5 4 4 3 3 4 4 4 4 5 5 5 5 6 6 5 4 3 3 2 1 2 3 2 2 3 3 2 2 2 2 2 2 2 2 2 2 2 2 3 3 3 3 4 4 4
6 5 5 6 5 4 4 3 3 4 4 4 5 5 5 5 6 6 6 5 4 4 3 2 3 3 3 2 2 2 2 1 1 2 1 2 2 2 2 1 2 2 2 3 3 3 3 4 4
6 6 5 5 5 5 4 4 4 4 5 5 5 6 6 6 6 7 7 6 6 5 4 3 3 3 3 3 2 2 1 1 1 1 1 1 0 0 1 1 1 2 3 3 3 3 3 4 5
6 6 6 5 5 5 5 6 6 5 6 6 6 6 6 6 7 7 7 7 6 6 6 5 4 3 4 4 3 2 1 1 1 1 1 0 0 1 1 1 2 3 3 3 3 3 4 4 5
6 6 5 5 6 6 6 7 7 7 7 7 7 7 7 7 7 7 7 7 6 6 6 6 5 4 4 4 4 3 2 2 1 2 2 1 1 2 3 3 3 3 3 4 4 4 4 4 5
6 6 6 6 6 6 7 7 7 7 7 7 7 7 7 7 7 8 7 7 7 7 6 6 6 5 5 4 4 3 3 3 2 3 2 2 2 2 3 3 3 3 4 4 4 4 5 5 5
6 7 7 7 7 7 7 7 8 8 8 8 8 7 7 7 8 8 8 8 8 8 8 7 7 7 6 6 5 5 4 4 3 4 3 3 3 3 3 4 4 4 4 4 4 5 5 6 6
6 7 7 7 7 7 7 8 8 8 8 8 9 8 8 8 9 9 9 9 9 9 9 8 8 8 8 7 7 7 6 5 5 4 4 4 4 3 4 4 5 5 5 4 4 5 6 6 6
6 6 7 7 7 7 7 8 8 8 9 9 9 9 9 8 9 10 10 10 10 10 10 10 9 9 9 9 8 8 7 6 6 6 5 5 5 4 4 4 4 5 5 5 5 6 6 6 7
6 7 7 7 7 8 8 8 8 8 9 8 8 8 8 9 9 10 10 10 10 10 10 10 9 9 9 9 8 8 8 8 7 7 6 6 5 4 5 4 5 5 5 5 5 6 6 6 7
7 8 8 8 8 8 8 8 8 9 9 9 9 9 8 8 9 9 10 10 10 10 10 10 10 10 9 9 8 8 8 8 8 7 7 6 5 5 5 4 5 5 5 5 6 6 7 7 7
8 8 8 8 8 8 8 9 9 9 9 9 9 9 8 9 9 10 10 10 10 10 10 10 10 9 8 8 8 8 8 7 7 7 6 5 5 5 5 5 5 5 5 6 6 6 7 8 8
8 8 8 8 8 8 9 9 10 9 9 9 9 9 9 9 8 9 10 10 9 9 10 10 10 10 10 9 9 8 8 7 6 5 5 5 5 5 5 5 6 6 6 6 7 7 8 8 8
8 8 8 8 8 9 9 9 9 10 9 9 8 8 8 9 9 9 10 10 10 10 10 11 10 10 10 10 9 9 8 8 6 6 6 6 6 6 6 6 7 7 7 7 7 7 7 8 8
8 8 8 8 8 9 9 10 9 9 9 9 8 8 9 9 9 9 9 10 10 10 9 10 10 9 10 10 10 9 8 7 7 7 7 7 7 7 7 7 7 7 7 7 7 7 8 8 8
8 9 9 8 9 9 10 9 10 10 10 10 9 9 9 9 10 10 10 10 9 10 10 10 10 9 10 10 10 10 8 7 7 7 7 7 7 7 7 7 7 6 7 7 7 8 8 8 8
9 9 9 9 10 10 10 10 10 10 11 11 10 10 10 10 10 10 10 10 10 10 10 10 10 10 10 10 9 9 8 7 8 8 8 7 7 7 7 7 7 7 7 7 8 8 8 8 8
10 10 11 10 11 11 10 10 11 11 11 11 11 11 11 11 11 10 10 10 11 10 10 10 11 10 10 10 9 9 9 9 8 9 8 8 7 7 7 7 7 7 7 7 8 8 8 9 9
10 11 11 12 11 11 11 11 11 12 11 11 11 11 12 11 11 11 10 11 10 10 9 9 9 9 9 8 9 9 9 9 9 9 8 8 7 7 7 7 7 7 8 8 8 8 8 8 9
12 12 12 12 12 12 12 12 11 12 12 12 12 11 11 12 11 11 11 11 10 10 10 9 8 8 8 8 9 9 9 9 9 9 9 8 8 7 7 7 7 7 8 8 8 8 8 8 8
12 12 12 12 11 11 12 13 12 12 12 12 12 12 12 12 12 11 11 11 11 10 10 9 9 8 8 8 9 9 9 9 9 9 9 8 8 7 6 6 6 6 7 7 7 7 8 8 9
12 12 12 12 11 12 12 14 13 13 13 12 12 12 12 13 12 12 12 12 12 11 10 10 10 9 9 9 9 9 9 9 9 8 8 8 8 7 7 7 7 7 7 7 7 7 8 8 9
14 13 13 12 12 12 12 14 13 13 13 14 13 13 13 13 13 13 12 12 12 11 11 10 10 10 10 10 10 10 10 9 9 9 9 9 8 8 8 7 7 7 7 8 8 8 8 9 9
15 13 12 11 11 12 12 15 14 14 14 14 13 14 14 14 14 13 12 12 12 12 11 11 11 11 11 11 10 10 10 10 10 9 10 9 9 9 9 9 8 8 8 8 8 9 9 9 10
16 15 13 12 12 13 13 14 13 14 14 14 14 14 14 13 13 13 13 13 12 12 11 11 11 11 11 11 10 10 10 10 10 10 10 10 9 10 10 9 9 9 9 8 8 9 9 10 11
15 16 16 15 14 14 15 14 13 13 14 14 14 14 13 13 13 14 13 13 13 12 12 12 11 11 11 11 11 11 10 10 10 10 9 9 9 9 10 9 8 8 8 8 9 9 10 10 10
17 16 16 16 15 16 15 14 13 13 14 14 14 14 14 13 13 13 13 12 12 12 12 12 11 11 11 11 11 10 10 10 10 9 9 9 9 10 10 9 9 9 9 9 9 10 11 11 11
18 17 18 18 17 17 16 15 14 15 15 14 14 14 13 13 13 13 12 12 12 12 11 12 11 11 11 11 11 11 10 10 10 10 10 10 10 10 10 10 10 10 10 10 10 10 11 11 11
20 19 19 20 18 18 17 16 15 16 16 15 14 14 14 13 13 13 12 12 12 12 12 12 12 11 11 11 11 11 11 10 10 10 10 10 10 10 10 10 10 10 11 11 11 11 11 11 12

GEFSSGP_500_meanwind_228.txt.gz
Wind_Speed
4 4 5 5 4 5 5 4 4 5 4 4 5 5 5 4 4 3 3 2 1 0 1 1 1 2 2 2 2 2 2 2 2 1 0 0 0 1 2 2 2 2 3 3 3 3 3 3 3
4 4 5 5 4 5 5 4 4 4 4 4 4 4 4 5 4 4 3 2 1 1 1 1 2 1 1 2 2 2 2 1 1 1 1 1 0 1 1 2 2 2 2 3 3 3 3 3 3
4 4 5 5 5 5 4 4 4 4 4 4 4 4 4 4 4 4 3 3 3 1 0 1 2 1 1 2 2 2 2 1 1 2 1 1 1 1 1 2 2 3 3 3 3 3 4 4 4
4 3 5 5 5 5 5 4 3 3 3 4 4 4 4 5 4 4 4 3 4 3 1 1 1 2 1 2 3 3 3 2 2 2 2 2 2 2 2 3 3 3 4 4 3 3 4 4 4
4 4 5 5 5 5 5 5 3 2 2 3 3 4 4 4 5 4 4 4 4 4 3 2 2 2 2 2 4 4 4 3 3 3 3 2 2 3 4 4 4 4 4 4 3 3 4 4 4
5 5 5 5 5 4 5 5 5 4 3 3 4 4 4 4 5 5 5 5 5 5 4 4 3 4 3 3 4 5 4 4 4 4 3 3 3 3 4 4 4 4 4 4 4 4 4 4 4
6 6 6 6 5 4 4 5 5 4 4 4 4 4 4 4 5 5 5 5 6 5 5 5 4 4 5 5 5 5 5 5 5 5 4 4 4 4 5 4 4 4 4 4 4 4 4 5 5
7 7 6 6 5 5 5 4 4 5 5 5 5 4 5 5 5 5 5 5 5 5 5 5 5 5 5 6 6 6 6 6 6 5 5 5 5 4 4 4 5 5 5 4 4 4 4 5 5
7 6 6 5 5 4 5 5 4 5 5 5 5 5 5 6 6 6 6 6 6 6 6 6 5 6 6 6 6 6 6 6 6 5 5 5 5 5 5 5 5 5 5 5 4 4 5 5 6
7 7 6 6 5 5 5 5 5 5 6 6 6 6 6 6 6 6 6 7 7 6 6 7 7 6 6 6 7 7 7 6 6 6 6 6 6 6 6 5 5 5 5 5 4 5 5 6 6
7 6 6 6 5 5 5 6 6 6 6 6 6 6 6 6 7 7 7 7 8 7 6 7 8 7 6 6 7 7 7 7 7 7 7 7 7 6 6 6 5 5 5 5 5 5 6 6 7
7 6 6 6 6 5 5 6 6 6 6 7 7 7 7 7 7 7 7 7 7 8 8 7 8 8 8 8 7 8 7 7 7 7 7 7 7 6 7 6 6 6 6 6 6 6 7 7 7
5 6 6 6 6 5 5 6 6 6 7 8 8 7 7 7 7 7 7 7 7 8 8 8 8 9 9 8 8 8 8 7 7 7 7 7 7 7 7 6 6 6 6 6 6 7 7 7 8
6 6 6 6 6 6 6 6 6 6 8 8 8 8 8 7 7 7 7 8 8 8 8 8 8 8 8 8 8 8 8 8 8 7 7 7 7 7 6 6 7 7 7 7 7 6 7 7 7
7 7 7 6 6 6 6 6 6 7 8 8 8 8 8 8 8 7 7 8 8 8 8 8 8 8 8 9 9 8 8 8 7 7 7 7 7 7 6 7 7 7 7 7 7 7 7 7 7
8 7 7 7 7 7 7 6 7 7 7 8 8 8 9 9 8 7 7 8 8 8 8 7 8 8 8 9 9 9 8 7 8 8 8 7 7 7 7 7 8 8 7 7 7 7 7 7 7
8 8 7 7 7 7 7 6 7 7 7 8 8 8 9 9 8 8 7 8 8 9 9 8 8 8 8 8 8 8 8 7 8 8 8 8 7 7 7 8 8 8 7 7 7 7 7 7 7
9 9 8 8 7 7 7 7 7 8 8 8 9 8 8 9 8 8 8 8 8 8 8 8 8 8 7 7 8 8 8 8 8 8 8 8 8 8 7 7 7 7 7 7 7 7 7 7 7
10 9 9 8 8 8 8 8 8 8 8 8 8 8 8 9 8 8 8 8 8 8 8 8 8 7 7 7 7 8 8 8 8 8 8 8 7 7 7 7 7 7 7 8 7 7 7 7 7
10 10 9 8 9 10 9 9 8 8 8 8 8 8 9 9 9 8 8 8 8 8 7 7 8 8 7 7 8 7 7 8 8 7 8 8 8 8 8 8 8 7 7 7 7 6 6 7 7
10 10 10 10 10 11 11 10 10 9 9 9 8 8 8 9 9 9 8 8 8 9 9 8 8 8 8 8 8 7 7 8 7 8 8 8 8 8 8 8 7 7 7 7 7 6 6 7 7
11 11 11 11 11 11 11 11 10 10 10 9 9 8 8 8 8 8 8 8 8 9 9 8 8 9 9 9 9 8 8 8 8 8 9 8 8 8 8 8 7 7 7 7 7 7 7 7 7
12 12 12 12 12 12 12 11 10 10 10 10 9 8 8 9 9 8 8 8 8 9 9 9 9 9 10 10 10 9 9 9 9 9 9 9 9 9 9 8 8 7 7 7 7 7 8 8 8
13 13 13 13 13 13 12 12 11 10 10 10 9 9 9 9 9 9 8 9 9 9 10 10 10 10 10 10 10 10 10 9 9 9 9 9 9 9 9 8 8 7 7 6 7 8 8 8 8
14 14 14 14 14 14 13 13 12 11 11 10 10 10 10 9 9 9 8 9 9 10 10 10 10 11 10 10 10 10 10 9 9 9 9 9 9 9 9 9 8 8 7 7 7 7 8 8 8
15 15 15 15 14 13 13 13 12 11 11 10 10 10 10 9 10 10 10 10 10 10 10 10 10 10 10 10 10 10 10 9 9 9 10 9 9 10 10 9 9 9 8 8 8 8 8 8 9
15 15 15 16 15 14 14 13 13 12 11 11 11 10 10 10 10 11 10 10 11 11 10 10 10 10 10 10 10 10 9 10 10 10 10 10 10 10 10 10 10 10 10 10 9 9 9 9 9
16 16 16 17 16 15 15 15 14 13 12 11 11 10 10 10 10 11 11 11 10 11 11 11 11 11 10 10 10 9 9 10 10 10 10 11 10 11 10 10 10 10 10 10 9 9 9 9 10
16 17 18 18 18 17 17 16 14 13 13 12 11 11 10 10 10 10 10 10 10 10 10 10 10 10 10 10 10 10 10 10 10 11 11 10 10 10 10 10 10 10 9 9 8 9 10 10 10
17 18 19 19 18 18 18 16 14 14 14 13 12 12 11 10 10 10 10 11 10 10 10 10 10 10 11 11 11 10 10 10 10 11 10 10 10 10 10 10 10 10 9 9 9 10 11 11 11

GEFSSGP_500_meanwind_234.txt.gz
Wind_Speed
3 3 3 3 3 4 4 3 3 3 4 4 5 5 4 3 2 1 2 1 1 1 2 2 1 1 1 2 2 2 2 3 3 3 4 4 4 4 5 5 5 5 5 5 4 4 4 4 4
3 3 3 3 3 3 3 3 3 3 3 4 4 5 4 4 2 1 1 1 1 1 1 2 1 1 1 1 1 1 2 1 1 2 2 3 3 4 4 4 4 4 5 5 5 4 4 4 5
3 3 3 3 3 3 3 3 4 3 4 4 4 4 4 3 3 2 1 1 0 1 1 0 1 0 0 1 0 0 1 1 1 1 2 2 2 3 4 4 4 5 5 6 5 5 5 5 5
3 3 3 3 3 3 3 4 4 4 4 4 4 4 3 3 2 2 2 2 2 2 2 2 2 2 1 1 1 0 1 1 1 1 2 2 2 2 3 3 4 4 5 5 5 5 5 5 5
4 4 3 3 4 4 4 4 4 4 4 4 4 4 4 3 3 3 3 3 3 3 2 2 3 3 3 2 2 2 2 2 2 2 2 2 3 3 3 3 4 5 5 5 5 5 5 5 6
5 4 4 3 4 4 4 5 5 5 4 4 4 4 5 4 4 3 3 3 3 3 3 3 3 3 3 3 3 3 3 4 4 4 3 3 3 3 4 4 5 5 5 5 5 5 5 6 6
5 5 4 3 3 4 4 4 5 5 5 5 5 5 5 5 5 5 4 4 4 4 4 4 3 4 4 4 4 4 5 5 5 5 5 4 4 4 4 5 4 4 5 5 5 5 5 6 6
6 5 4 4 3 4 4 5 5 5 4 4 5 5 5 5 6 6 6 5 5 5 5 5 4 4 5 5 5 6 6 6 6 6 6 5 5 5 4 5 4 5 5 5 6 6 6 6 6
6 6 5 5 5 5 5 6 5 5 5 4 5 5 5 5 6 6 6 6 6 6 6 6 5 5 6 5 6 6 7 7 7 6 6 6 6 5 5 5 5 5 5 6 6 6 6 6 6
6 6 6 6 6 5 6 6 6 6 6 5 6 5 5 5 5 5 6 7 6 6 6 6 6 6 6 6 6 6 6 7 7 7 7 7 7 6 6 5 6 5 5 5 6 6 6 6 6
6 6 6 6 6 6 6 7 7 7 7 6 6 6 7 7 6 6 6 7 6 6 7 7 6 6 6 6 6 6 6 6 7 7 7 7 7 6 6 5 5 6 5 5 5 6 6 7 7
7 7 7 7 7 7 7 7 7 7 7 7 8 8 8 8 8 7 7 7 7 7 7 7 7 7 7 7 6 7 7 7 7 7 7 7 7 6 6 6 5 5 5 5 6 6 7 7 7
7 7 7 7 7 7 8 7 7 7 8 8 8 9 9 9 8 8 8 8 8 8 8 8 7 8 7 8 8 8 7 7 7 7 7 7 7 6 6 6 6 5 5 6 6 6 7 7 8
7 7 7 7 7 7 7 7 7 8 8 8 8 9 9 9 9 9 9 9 9 9 9 9 8 9 9 8 8 8 8 8 8 8 7 7 7 7 6 7 6 6 6 6 7 7 7 7 8
9 9 8 8 8 8 8 8 8 8 9 9 8 9 9 9 9 9 9 9 9 9 10 9 9 8 8 8 8 9 8 8 9 8 8 8 8 8 7 7 7 7 7 7 7 7 7 8 8
10 9 9 9 9 9 9 8 8 9 9 9 9 9 10 9 10 10 10 10 10 10 10 9 9 9 8 8 8 8 9 9 9 9 9 9 9 8 8 8 8 8 7 7 7 8 8 8 8
10 10 10 10 10 10 10 9 10 10 9 9 9 10 10 10 10 11 11 11 10 10 10 9 9 9 8 8 8 8 8 9 9 9 10 10 10 9 9 9 9 8 8 8 8 8 8 8 8
10 11 11 11 11 11 11 10 10 11 10 10 10 10 10 10 10 11 11 11 11 10 10 10 10 9 9 9 8 8 8 9 9 9 10 10 10 10 9 9 9 8 8 8 8 9 8 8 7
11 11 11 12 12 12 12 11 11 11 11 11 10 11 11 11 11 10 11 11 11 11 10 10 10 9 9 9 9 8 8 8 9 9 9 9 9 10 10 10 9 9 9 9 8 8 8 7 7
12 12 12 12 13 13 12 12 12 12 12 11 11 10 11 12 11 11 11 11 10 11 11 10 10 9 9 9 9 8 8 8 9 9 9 10 9 9 9 8 9 9 9 9 8 8 8 8 8
13 13 13 13 13 13 13 13 12 12 12 12 11 11 11 12 12 11 11 11 11 11 11 11 10 10 10 10 9 9 8 9 9 9 9 9 9 10 9 8 9 9 9 9 9 9 8 7 8
14 14 14 15 14 13 14 14 13 12 12 12 12 12 11 11 12 11 11 11 11 12 11 11 11 10 10 10 10 9 9 9 9 9 9 8 9 9 9 8 9 9 9 9 9 8 8 8 8
15 15 16 16 16 15 14 14 13 13 12 12 12 12 12 12 11 12 11 11 11 11 11 11 11 10 10 10 10 11 10 10 9 9 8 8 8 9 9 8 8 8 9 8 8 8 8 8 9
15 16 16 16 17 16 15 15 14 14 13 13 14 14 13 13 12 12 12 12 12 12 12 11 11 11 10 10 10 10 10 10 9 8 8 8 8 9 9 9 8 8 9 8 8 8 8 8 8
16 16 16 17 17 16 16 16 15 15 14 14 14 14 14 14 14 13 12 12 12 12 12 12 12 11 11 11 10 10 10 10 9 9 8 8 8 9 9 10 9 8 8 8 8 9 8 8 8
16 16 16 17 16 16 16 17 16 16 15 14 14 14 14 15 15 14 14 13 12 12 12 12 11 11 11 11 11 11 11 10 10 9 9 9 9 9 9 9 9 9 8 8 8 8 9 9 9
17 17 17 18 18 17 17 16 16 16 16 15 14 14 14 15 15 15 14 13 13 12 12 12 12 12 12 12 12 12 11 11 10 10 10 10 10 9 10 10 10 9 9 8 9 9 9 9 9
18 17 18 18 18 18 16 16 15 16 16 15 15 14 14 14 14 15 15 14 14 13 13 12 13 13 13 12 12 12 12 11 11 11 11 11 11 11 11 11 10 9 9 9 9 9 9 9 9
18 18 18 19 19 19 17 15 15 16 15 15 15 15 15 14 14 15 15 15 15 14 14 14 13 13 13 13 12 12 12 12 11 11 11 11 11 12 12 11 10 10 10 10 9 9 10 9 9
18 18 18 19 19 19 18 16 16 16 15 15 15 15 15 15 15 15 16 16 15 15 14 14 13 13 13 13 13 12 12 12 11 11 12 12 12 12 12 11 11 11 11 10 10 10 10 9 9

GEFSSGP_500_meanwind_240.txt.gz
Wind_Speed
3 3 4 4 5 5 5 5 5 6 6 6 6 6 6 6 5 4 3 3 2 2 3 3 3 3 3 3 3 3 3 4 4 4 4 4 4 4 4 3 3 3 3 3 2 2 2 2 3
2 3 4 4 4 4 5 5 5 5 6 6 6 6 5 5 4 3 3 2 3 2 2 2 3 3 3 3 2 2 2 3 3 3 2 2 2 2 2 2 3 2 3 2 2 2 2 2 3
2 2 3 4 4 5 5 5 5 5 5 6 6 5 5 4 4 3 3 2 3 2 2 2 2 3 2 2 2 2 2 3 2 2 1 1 1 1 1 1 1 1 2 3 2 2 2 2 3
3 3 3 4 4 4 4 5 4 5 5 5 5 5 4 4 3 3 4 3 2 3 3 3 3 2 2 2 2 3 3 3 2 2 1 0 0 1 1 1 1 1 2 3 3 3 2 2 3
3 2 3 4 4 4 4 5 5 5 4 4 4 4 4 4 4 4 3 3 3 3 4 3 3 3 3 3 3 4 3 4 3 3 2 2 2 1 1 2 2 2 2 2 2 3 3 3 3
3 3 3 4 4 4 4 5 5 5 4 4 5 4 4 4 4 4 4 4 4 4 4 4 4 4 4 4 4 4 4 4 4 4 4 4 3 3 3 3 3 3 3 3 3 3 3 4 4
4 3 3 3 4 5 5 5 5 5 5 5 5 5 5 4 4 4 4 4 5 5 5 5 5 5 5 5 5 5 5 6 5 5 5 5 5 5 5 5 4 4 4 4 4 4 4 4 5
5 4 4 4 4 5 5 6 5 5 5 5 5 5 5 5 5 5 5 5 5 5 6 6 6 6 6 6 6 6 6 6 6 6 6 6 6 6 6 6 6 6 5 5 5 5 5 5 5
6 5 5 4 4 5 5 6 6 5 5 5 5 5 6 6 6 6 6 6 6 7 7 7 7 7 7 6 6 7 6 6 7 7 7 7 7 8 8 7 7 6 6 6 6 6 6 5 6
6 6 5 5 5 5 5 6 5 5 5 5 6 6 6 7 7 7 7 7 7 8 8 8 8 8 8 7 7 7 7 7 7 7 8 8 8 8 8 7 6 6 6 7 7 6 6 5 6
6 6 6 6 6 6 5 5 5 6 6 6 6 6 7 7 7 7 8 7 7 8 8 8 9 9 8 8 8 8 8 8 7 7 7 7 7 7 7 7 7 7 7 7 7 6 6 6 6
6 7 7 6 6 6 6 6 6 6 6 6 6 7 7 8 8 8 7 7 8 8 8 8 9 8 8 8 8 8 8 8 7 7 7 7 7 7 8 8 8 7 7 7 6 6 7 7 7
7 7 7 7 6 6 6 6 6 6 6 6 7 7 7 8 8 8 8 8 8 8 8 9 9 9 9 9 9 9 8 8 8 8 8 8 8 8 8 7 7 7 7 7 7 6 7 7 8
7 7 7 7 7 6 7 7 7 7 7 7 7 8 8 8 8 9 9 8 9 9 9 8 8 8 9 9 9 9 9 9 8 8 8 8 8 8 8 8 8 7 7 7 7 7 7 7 7
7 7 7 7 7 7 7 8 8 8 8 8 9 8 8 8 9 9 9 9 9 9 9 9 9 8 8 8 8 9 8 9 8 8 9 9 8 8 9 9 9 8 8 8 7 7 7 7 7
7 7 8 8 8 8 8 8 9 9 10 9 9 9 9 9 10 10 10 10 10 10 9 9 9 9 9 9 9 8 8 8 9 9 9 10 9 9 9 9 9 9 9 9 9 8 7 7 7
8 8 9 9 9 9 9 9 10 10 10 10 10 10 10 10 10 10 10 10 10 10 9 9 10 10 10 10 9 9 9 9 9 9 10 10 10 10 10 10 9 9 9 9 9 8 7 7 7
8 9 9 10 10 10 10 10 10 10 11 11 10 10 10 10 10 11 11 11 11 10 10 10 11 11 10 9 9 9 9 9 10 10 10 10 10 10 10 10 9 9 9 9 9 9 8 8 8
9 10 10 10 10 10 11 11 11 10 10 10 11 11 11 11 11 11 11 12 11 11 12 12 12 11 11 10 10 10 9 10 9 10 10 10 10 10 10 10 10 10 10 10 9 9 9 8 8
10 10 11 11 11 11 11 11 11 10 11 11 11 11 11 11 11 11 11 12 12 12 12 11 11 11 11 11 11 10 10 9 9 9 10 10 10 10 11 10 10 10 10 10 10 9 9 9 9
12 11 12 12 12 12 12 12 12 12 12 12 12 12 12 12 12 12 12 12 12 12 12 12 11 11 12 12 12 11 10 10 10 9 10 10 10 9 10 10 9 9 10 9 9 8 8 9 9
12 12 12 12 12 13 12 12 12 12 12 12 12 12 13 13 12 12 12 12 12 12 12 13 12 12 12 12 12 11 11 10 10 10 10 9 8 8 9 9 8 8 8 8 8 8 8 8 8
13 13 13 13 13 14 13 13 12 13 13 13 13 12 12 13 12 12 12 12 12 12 12 12 12 12 12 12 12 11 11 10 10 9 8 8 8 8 8 8 8 8 7 7 7 8 8 8 8
13 13 14 14 15 15 14 14 13 13 13 13 13 13 13 13 13 13 13 13 12 12 12 13 12 12 12 12 12 12 11 11 10 10 9 8 8 7 7 8 7 8 7 7 7 7 7 7 8
14 14 14 15 15 16 15 15 14 14 13 13 13 13 13 14 14 13 13 13 13 13 13 13 13 13 13 12 12 11 11 11 11 10 10 9 8 8 7 7 8 8 8 8 8 7 7 7 7
14 14 14 15 16 16 16 16 15 14 15 14 14 14 14 14 14 14 14 14 14 14 14 14 13 13 13 12 12 11 11 11 11 10 10 10 9 8 8 9 9 9 9 8 8 8 7 7 7
15 15 15 15 16 16 17 16 16 15 15 15 15 15 15 14 15 15 14 14 14 14 14 14 14 14 13 13 13 13 13 12 11 11 10 9 9 9 9 9 9 8 8 8 9 8 8 7 7
16 16 16 16 16 16 17 16 16 16 16 16 16 15 15 15 15 15 15 15 15 14 14 15 15 15 14 14 14 13 13 12 11 11 10 10 10 9 9 9 9 9 9 9 9 9 8 8 7
16 16 16 17 17 17 17 17 16 16 16 16 16 16 16 16 16 16 16 15 14 15 15 15 15 15 15 14 14 13 13 13 12 12 11 11 10 10 10 10 10 10 10 10 10 10 9 9 8
17 17 17 18 18 18 18 18 17 17 16 16 16 16 16 16 16 16 15 15 15 15 15 15 15 14 15 15 14 14 14 14 14 13 12 12 12 12 11 11 11 11 10 10 10 10 10 9 9

GEFSSGP_500_meanwind_246.txt.gz
Wind_Speed
2 2 3 4 5 6 5 5 4 5 5 5 5 5 5 4 3 3 2 2 2 2 2 2 1 1 1 1 0 0 0 1 1 1 1 1 1 1 2 2 2 2 3 2 2 2 3 3 3
2 2 3 3 4 4 4 4 5 5 5 5 5 4 4 4 3 3 3 3 3 2 2 2 2 1 1 1 2 1 1 1 1 1 1 1 1 2 2 2 2 2 2 3 3 3 3 3 4
2 2 3 3 4 4 4 4 5 5 5 5 5 5 5 4 3 3 3 4 3 3 3 3 2 2 3 3 2 2 1 1 2 2 2 2 2 2 3 3 2 3 2 3 3 4 4 4 4
3 3 3 4 3 4 4 4 5 5 5 5 5 4 4 4 4 3 3 4 4 4 3 3 3 3 3 3 3 3 2 2 3 3 3 3 3 3 4 4 3 3 4 4 4 4 4 4 4
3 3 3 4 4 4 4 5 5 5 4 5 5 4 4 4 4 4 4 4 4 4 4 4 4 3 3 3 3 4 4 4 4 4 5 5 5 5 4 5 5 4 4 4 4 5 5 5 5
4 4 4 4 4 5 4 4 5 4 4 4 4 4 4 4 5 5 5 5 5 5 5 5 4 4 5 5 5 5 5 5 6 6 6 6 6 6 6 6 6 6 5 5 5 6 6 6 6
4 4 4 4 5 6 5 5 5 5 5 5 5 5 5 5 6 6 6 6 7 7 7 6 6 6 6 7 7 7 6 7 7 7 7 7 7 7 7 7 7 7 7 7 7 7 7 7 7
4 5 5 5 6 7 6 6 6 6 5 5 5 6 5 6 6 6 7 7 7 8 8 8 8 8 8 8 7 7 7 7 8 7 8 7 7 8 8 8 8 8 8 8 8 8 9 8 8
5 5 4 5 6 7 7 8 7 7 6 6 6 6 6 7 7 7 7 7 8 8 9 9 8 8 8 8 8 8 8 8 8 8 9 9 9 9 9 9 9 9 10 10 9 10 9 9 9
6 6 5 6 6 7 7 7 7 7 7 7 6 7 7 8 8 9 8 8 9 9 9 10 9 9 8 9 9 8 8 9 9 9 9 10 10 10 9 9 9 10 10 10 10 9 9 9 9
7 7 6 6 6 7 8 7 8 8 8 8 7 7 7 8 9 9 9 9 9 9 9 9 9 9 9 9 9 9 9 10 10 10 10 11 11 10 10 10 9 9 9 9 9 9 10 10 9
7 8 7 7 7 7 8 8 8 7 7 8 8 8 8 8 8 9 9 9 9 9 9 9 9 9 10 9 10 10 10 10 10 10 10 11 11 10 10 10 10 10 10 10 10 10 10 10 10
8 8 8 7 7 7 8 8 8 7 7 7 7 7 8 8 8 9 9 9 10 10 10 10 10 9 10 10 10 10 10 10 10 11 10 11 10 9 10 10 11 11 10 10 10 10 10 10 10
7 7 7 7 7 7 7 8 8 8 8 8 8 8 8 9 9 9 9 9 10 10 10 10 10 10 10 10 10 10 10 10 10 10 10 10 11 10 10 11 11 11 11 11 10 10 10 10 10
7 8 8 8 8 8 8 8 9 9 9 9 9 10 9 10 9 10 10 9 9 9 10 10 10 10 10 10 10 10 11 10 10 10 11 11 10 10 10 11 11 11 11 11 11 10 10 9 9
8 8 8 8 9 8 9 9 9 9 10 10 10 11 10 10 10 10 10 10 10 10 10 9 9 10 10 10 10 10 10 11 11 11 12 12 12 11 11 11 11 11 11 10 10 10 9 9 10
8 8 8 9 9 9 9 9 9 10 10 11 11 11 11 10 10 10 11 11 10 11 10 10 10 10 10 10 10 10 11 11 11 12 11 11 11 11 11 12 11 10 10 10 10 10 10 9 10
8 9 9 9 9 10 10 10 10 10 11 11 11 11 11 11 11 11 11 11 11 11 11 11 11 11 11 11 11 11 11 11 11 11 12 12 11 11 12 12 11 11 10 10 10 11 10 10 10
10 10 10 10 10 11 11 10 11 11 11 12 12 12 12 11 11 12 12 11 11 11 12 12 12 12 12 12 11 11 11 11 11 11 11 11 11 11 12 12 12 12 11 10 10 10 11 11 11
10 11 11 11 12 12 11 11 12 12 12 13 13 13 13 13 12 12 12 12 11 12 12 12 12 12 12 12 11 11 11 11 11 11 10 11 11 12 12 12 12 12 11 10 10 10 11 11 11
11 11 11 12 12 12 13 12 12 12 13 13 13 13 13 13 13 13 13 13 12 12 13 13 13 12 12 12 12 11 11 11 11 11 11 11 11 11 11 12 11 11 11 10 10 10 11 10 10
12 12 12 12 13 12 13 14 13 13 14 13 13 14 13 14 14 13 13 13 13 13 13 13 13 13 13 13 12 12 12 11 11 11 11 10 10 10 10 11 10 10 10 10 10 10 10 10 10
12 12 12 12 12 12 13 15 14 14 15 15 14 14 14 14 14 14 13 14 14 13 13 13 13 13 13 13 12 12 12 11 11 11 11 10 10 10 10 9 8 9 9 10 10 10 9 9 10
12 11 11 11 11 13 13 15 16 14 15 16 15 15 15 15 15 15 14 15 14 14 14 14 13 13 13 12 12 13 12 11 11 11 11 10 9 9 9 9 8 8 9 10 9 9 9 9 10
12 11 11 11 12 13 13 15 16 15 16 16 16 16 15 15 16 15 15 15 15 14 14 14 13 14 14 13 13 13 12 12 12 11 11 10 9 9 9 9 8 8 8 9 9 9 9 9 9
13 12 12 12 12 13 14 16 16 17 17 17 17 17 16 16 16 16 16 15 15 15 14 14 14 14 14 14 14 13 12 12 12 11 11 11 10 9 9 9 9 8 8 9 9 10 10 10 10
14 14 14 15 15 15 16 17 18 18 18 18 18 18 18 17 17 17 17 16 16 16 15 15 14 14 14 14 14 14 13 12 12 12 12 12 11 10 10 9 9 9 9 9 9 10 10 10 10
15 15 15 16 16 16 16 17 19 18 19 19 19 19 18 17 17 17 17 17 17 16 16 16 15 15 15 15 15 14 14 13 12 12 12 12 12 11 11 11 10 10 10 10 10 10 10 10 9
16 16 16 16 17 17 17 18 19 19 19 19 19 19 19 18 18 17 17 16 16 16 16 16 16 16 16 16 15 15 14 14 13 13 12 12 12 12 12 12 12 11 11 11 11 11 10 10 10
16 17 17 18 18 19 19 20 19 20 19 19 18 18 18 18 18 17 17 17 17 16 16 16 16 17 17 16 16 16 15 15 15 14 14 13 13 13 13 12 13 13 12 12 11 11 11 11 11

GEFSSGP_500_meanwind_252.txt.gz
Wind_Speed
3 2 3 4 5 5 5 5 4 4 4 4 4 4 4 3 2 1 0 0 0 1 1 0 0 1 0 0 0 0 0 0 1 1 1 2 2 2 3 3 3 3 3 3 3 4 3 4 4
2 2 2 3 4 4 4 5 4 5 4 3 3 3 3 3 2 1 1 1 1 1 1 1 1 0 0 1 1 0 0 1 2 2 2 2 2 3 3 3 4 4 4 3 4 4 4 5 5
2 2 3 4 4 4 4 4 4 4 4 4 3 3 3 3 2 2 2 3 2 2 1 1 1 1 1 2 2 1 1 2 2 3 3 3 3 4 4 4 4 4 4 4 4 5 5 6 6
3 3 3 4 4 3 4 4 3 3 3 3 4 3 3 2 2 2 2 3 2 2 2 2 2 2 2 2 3 3 3 3 3 3 4 4 4 4 4 5 5 5 5 5 5 5 6 6 6
4 4 4 4 4 4 3 3 3 3 2 3 3 3 2 2 2 2 3 3 2 2 2 2 3 2 3 3 3 4 4 4 4 4 5 5 5 5 5 6 6 6 6 6 6 6 7 7 7
4 4 5 4 3 4 4 4 4 4 3 3 3 3 3 3 3 3 4 3 3 3 3 3 4 3 3 4 4 5 5 5 5 5 5 6 6 6 7 7 6 6 7 7 7 7 7 7 8
4 5 5 5 4 4 3 3 4 4 4 4 4 4 4 4 3 4 5 5 4 4 4 5 5 5 4 5 5 5 5 5 6 7 7 7 7 8 8 8 8 7 7 8 7 8 8 9 9
5 5 5 5 4 3 3 3 3 4 4 4 4 4 4 4 4 5 5 5 5 5 6 6 6 6 6 6 6 6 6 6 6 7 8 8 8 8 8 8 8 8 9 9 8 8 8 9 10
5 5 4 4 5 4 3 3 3 4 4 4 5 5 6 6 5 5 5 6 6 6 6 7 7 7 8 7 7 7 7 8 8 7 8 8 8 9 9 9 9 9 9 9 9 9 9 9 10
5 5 4 4 4 4 4 4 5 4 4 4 4 5 5 6 6 6 6 6 6 6 6 7 7 7 8 8 8 8 8 9 9 9 9 8 9 10 10 10 10 10 10 10 9 9 9 9 10
6 5 4 5 4 4 5 5 5 4 4 4 4 4 5 5 6 5 6 6 6 6 7 7 7 7 8 9 9 8 9 9 9 9 9 9 9 10 10 10 11 11 10 10 9 9 9 9 9
6 6 5 5 4 5 4 4 5 5 5 4 4 4 5 5 5 5 6 7 7 8 8 8 7 7 8 9 9 9 9 9 9 10 10 10 10 10 11 11 12 11 10 10 9 9 9 9 9
6 6 6 5 5 5 5 4 5 5 5 5 5 4 5 5 5 6 6 7 7 8 8 8 8 8 8 8 9 9 9 10 10 10 10 11 11 11 11 11 11 11 10 10 10 9 9 9 9
6 6 6 6 5 5 5 5 5 6 6 6 5 5 6 6 6 6 6 6 7 7 7 8 8 8 8 9 9 10 10 10 11 11 11 11 11 11 11 11 11 11 11 10 10 10 9 9 10
6 6 6 5 5 5 5 6 6 6 6 7 7 6 6 7 7 7 7 6 7 7 7 7 8 8 8 9 9 10 10 10 11 11 10 10 11 11 10 11 11 11 10 10 10 10 10 10 9
6 6 5 6 5 5 5 5 6 6 6 6 7 7 7 7 7 8 8 7 7 7 7 8 8 8 8 9 9 9 10 10 10 9 10 10 10 10 10 10 11 11 11 11 10 10 10 10 9
7 6 5 6 6 5 5 5 5 6 5 6 7 7 7 7 8 8 8 8 8 8 8 8 8 8 8 8 8 9 9 9 9 9 9 10 10 10 10 11 11 11 11 11 10 10 10 10 9
7 7 6 5 5 5 5 5 5 6 6 6 7 7 7 8 8 8 8 8 9 9 8 8 8 9 9 8 8 8 8 9 9 9 9 9 10 10 10 11 11 10 10 10 10 10 10 9 9
8 8 7 7 6 6 6 6 6 6 7 7 7 7 7 8 8 8 9 9 8 9 9 8 9 10 10 10 9 9 9 9 9 9 9 9 9 10 10 10 11 11 10 10 10 10 10 10 10
9 9 8 8 8 8 8 7 6 6 7 7 7 7 8 8 8 9 9 9 9 9 10 10 10 10 11 10 10 10 10 9 9 9 9 9 10 10 10 10 11 10 10 10 10 10 10 10 10
9 9 9 9 10 10 10 9 7 7 8 8 8 8 8 9 9 9 9 10 10 10 10 11 11 11 11 11 11 11 11 11 10 10 10 10 10 10 10 10 10 10 9 9 9 9 9 9 9
10 10 11 11 11 11 11 10 9 9 9 9 9 9 9 9 10 10 10 10 11 11 11 11 12 12 12 12 11 11 11 11 11 10 10 10 10 10 10 10 10 9 9 8 8 8 9 9 9
11 11 11 12 12 11 11 12 10 10 10 10 10 10 10 9 10 10 10 11 11 11 11 11 12 12 12 12 12 11 11 11 11 10 10 10 10 10 10 10 9 9 8 8 8 8 8 9 9
12 12 12 12 12 12 11 12 11 10 10 10 11 11 10 10 10 10 11 12 12 12 12 12 12 12 12 12 12 12 12 12 11 11 11 11 10 10 10 10 9 9 9 9 9 9 9 9 9
12 12 13 13 13 12 12 12 12 11 10 11 11 11 11 11 10 11 12 12 12 13 12 12 13 13 13 13 12 12 12 12 12 12 12 11 11 11 10 10 10 10 9 9 9 10 10 9 9
12 12 13 14 13 13 12 13 12 11 11 11 11 11 11 12 12 12 12 13 13 13 13 13 13 13 14 14 14 13 13 13 13 12 12 12 12 11 11 10 9 9 9 9 9 9 9 9 9
13 12 13 14 14 14 14 14 14 13 12 12 12 12 11 12 13 13 13 13 14 14 14 14 14 14 14 15 15 14 14 13 13 12 12 12 12 11 11 10 9 9 10 10 9 9 9 9 9
13 12 12 13 14 14 15 15 15 14 14 14 14 14 13 14 14 14 14 14 14 14 14 15 15 15 14 14 14 14 14 14 13 13 13 13 13 12 11 10 10 10 10 10 11 10 10 10 10
12 13 14 15 16 17 16 15 15 15 14 15 15 15 15 14 15 15 15 15 15 15 14 14 15 15 15 15 15 15 14 14 14 13 13 13 12 11 11 11 10 10 10 11 11 11 11 10 10
14 15 15 16 17 17 17 16 16 16 16 15 15 16 16 16 15 16 16 16 16 15 15 15 15 15 16 16 15 15 15 14 14 14 14 13 13 13 12 12 12 12 11 11 11 11 11 11 11

GEFSSGP_500_meanwind_258.txt.gz
Wind_Speed
0 1 1 2 2 1 2 3 4 4 4 4 4 3 3 2 2 1 0 1 1 1 1 2 2 2 2 2 2 2 2 3 3 3 3 3 3 4 4 4 4 4 5 5 6 6 5 6 6
0 1 1 1 1 1 2 2 3 4 4 4 3 2 2 2 1 1 1 1 2 2 2 2 1 1 1 2 2 1 2 2 2 3 3 3 3 4 4 4 5 4 5 5 6 6 6 7 7
1 1 1 1 2 2 2 3 3 4 4 3 2 2 2 1 1 1 1 2 2 3 3 2 1 1 1 1 1 1 2 2 2 3 3 3 3 4 4 4 5 5 5 5 6 6 7 7 7
2 2 2 2 1 2 2 3 4 4 4 3 2 2 1 2 1 2 1 2 2 3 3 2 2 2 2 2 2 2 2 2 2 3 3 4 4 5 5 5 5 6 6 6 6 7 7 7 7
3 2 2 2 2 2 2 3 3 3 3 3 3 3 2 2 2 2 2 2 2 3 3 2 3 3 3 3 3 3 3 2 3 4 5 5 5 6 6 6 6 6 6 7 7 7 7 7 8
3 3 3 3 3 2 2 3 3 3 3 4 4 4 4 3 3 3 4 4 4 4 3 4 3 3 3 3 4 4 4 4 5 5 5 6 6 6 7 7 7 7 7 7 7 7 7 8 8
3 3 4 3 3 3 3 4 4 4 4 4 4 4 4 4 4 4 5 5 5 4 5 5 5 5 4 4 5 5 5 6 6 6 6 7 7 7 7 7 8 8 7 8 8 8 8 8 8
3 4 4 4 4 3 4 4 4 5 5 5 4 4 5 5 5 5 5 5 5 5 5 5 5 6 6 6 6 6 7 7 7 7 7 8 8 8 8 8 8 8 8 8 8 8 9 9 9
4 4 4 4 4 4 4 4 5 4 5 5 5 5 6 6 6 6 6 6 6 5 6 6 6 7 7 7 7 8 8 8 8 8 8 8 9 9 9 9 9 9 9 9 9 9 10 10 10
5 5 5 5 4 5 5 5 5 5 4 5 6 6 6 6 6 6 6 6 6 6 6 6 6 7 7 8 8 9 9 9 9 9 9 10 10 10 10 9 9 10 10 10 10 10 9 9 10
6 6 6 5 5 6 6 6 6 6 6 6 6 6 6 6 7 7 7 7 7 7 7 7 7 7 8 8 9 9 9 10 10 10 10 10 10 10 10 10 11 11 11 11 10 10 10 9 10
6 6 6 6 6 6 6 7 6 6 5 5 6 6 6 6 6 6 6 6 7 7 7 7 8 7 8 8 9 9 9 10 10 10 11 11 11 11 11 12 12 12 12 11 11 10 10 10 10
6 6 6 6 6 6 7 7 7 7 6 6 6 7 6 6 7 7 7 7 7 7 7 7 8 8 8 8 9 10 10 11 11 11 11 11 12 12 12 12 12 12 12 11 11 11 10 11 10
6 7 6 6 6 6 7 7 8 8 8 8 7 7 8 7 7 7 7 7 7 7 7 8 8 8 9 9 9 9 9 10 10 10 10 11 11 12 12 12 12 11 11 11 11 11 11 11 11
7 7 7 7 7 7 7 7 8 8 9 8 8 8 8 8 7 7 7 7 8 7 7 7 8 9 9 9 9 9 10 10 9 10 10 11 11 11 11 12 11 11 11 11 11 11 11 11 11
7 8 8 8 7 7 7 7 8 8 8 8 8 8 8 8 8 8 8 8 8 8 8 7 8 8 8 8 9 9 9 10 10 10 10 10 10 11 11 11 11 11 11 11 11 11 11 11 11
7 7 8 8 8 7 7 7 8 8 8 8 8 9 9 9 9 9 8 8 9 9 9 8 8 9 8 8 8 9 9 9 9 9 10 10 10 11 11 10 10 10 10 10 11 11 11 11 11
7 7 7 8 8 8 7 7 8 8 8 9 9 9 9 9 9 9 9 9 9 9 9 9 9 9 8 8 8 8 9 9 9 10 10 10 10 10 10 9 10 10 11 11 11 10 11 11 10
9 9 8 8 9 9 9 9 9 9 9 9 9 9 9 10 9 9 8 9 9 9 9 9 9 9 8 8 9 9 9 9 9 9 9 9 9 9 9 9 9 10 10 10 10 10 10 10 10
9 9 9 9 10 10 10 10 10 9 9 9 10 10 10 10 10 10 9 10 9 9 9 9 9 9 10 10 10 10 10 9 9 9 9 9 10 9 9 9 9 10 10 10 9 9 9 9 9
11 11 11 11 11 11 11 11 11 11 10 10 10 10 11 11 11 11 10 10 11 11 10 10 10 10 11 11 11 11 11 11 10 10 10 10 10 9 9 9 10 10 10 10 9 9 9 9 9
12 12 12 12 13 13 13 12 11 12 11 11 11 11 11 11 12 12 11 11 11 11 12 11 11 11 11 11 12 11 11 11 11 10 10 10 10 10 10 10 10 10 9 10 9 8 8 8 9
12 12 12 13 13 13 13 13 11 12 12 12 12 12 12 12 12 12 12 11 11 11 11 11 12 12 13 12 12 12 12 11 11 10 10 10 10 10 10 10 10 10 9 9 9 8 9 9 9
13 13 14 14 14 14 13 13 11 12 12 12 12 12 13 13 12 13 12 12 12 11 12 12 12 12 13 13 13 12 12 12 12 11 11 11 11 10 10 11 10 10 10 10 9 9 9 10 10
13 13 14 14 14 14 13 13 12 12 13 13 13 13 13 13 13 13 13 13 12 12 13 13 13 13 13 13 13 13 13 13 12 12 12 12 11 11 11 11 10 10 10 10 10 10 10 10 10
13 14 14 14 14 13 13 13 13 13 13 13 13 13 14 14 13 14 14 14 13 13 14 14 13 13 13 13 13 13 14 14 13 13 13 13 13 12 12 11 11 11 10 10 10 10 11 10 10
14 14 14 15 14 14 13 13 13 13 13 13 14 14 14 14 14 14 14 14 15 14 14 14 14 14 14 13 13 13 14 14 14 14 14 14 13 13 13 12 12 12 11 11 10 10 10 9 9
15 14 14 15 15 14 14 13 13 13 13 13 14 14 15 15 15 15 15 15 15 15 15 15 15 15 15 15 14 14 14 15 15 15 15 14 13 13 13 13 13 12 12 11 10 10 10 10 10
15 15 16 16 16 16 15 15 15 14 14 14 14 15 15 16 16 16 16 16 16 16 16 16 16 16 16 15 15 15 15 16 16 16 15 14 14 14 14 14 14 14 13 12 11 11 11 11 11
17 17 17 18 18 18 17 16 16 16 16 16 15 15 15 16 16 16 16 17 17 17 17 17 17 17 17 16 16 15 16 16 16 16 15 15 15 15 14 14 14 14 14 14 13 13 13 13 13